Observation data for Tarzan on 07/11/2018      Previous  Date       Current Mesonet Observations  Soil Data  Daily Summary Page  Observations in Plain Language
KTA1 110501Z 17005KT 25/14 A3013 RMK A01 T02490139  RH  050%=      5-min Rain = 0
KTA1 110502Z 17005KT 25/14 A3013 RMK A01 T02490139  RH  051%=      5-min Rain = 0
KTA1 110503Z 17005KT 25/14 A3013 RMK A01 T02480139  RH  051%=      5-min Rain = 0
KTA1 110504Z 17005KT 25/14 A3013 RMK A01 T02480139  RH  051%=      5-min Rain = 0
KTA1 110505Z 17005KT 25/14 A3013 RMK A01 T02480139  RH  051%=      5-min Rain = 0
KTA1 110506Z 17004KT 25/14 A3013 RMK A01 T02480140  RH  051%=      5-min Rain = 0
KTA1 110507Z 18004KT 25/14 A3013 RMK A01 T02480139  RH  051%=      5-min Rain = 0
KTA1 110508Z 18004KT 25/14 A3013 RMK A01 T02470139  RH  051%=      5-min Rain = 0
KTA1 110509Z 18004KT 25/14 A3013 RMK A01 T02470140  RH  051%=      5-min Rain = 0
KTA1 110510Z 18004KT 25/14 A3013 RMK A01 T02480140  RH  051%=      5-min Rain = 0
KTA1 110511Z 18004KT 25/14 A3013 RMK A01 T02470139  RH  051%=      5-min Rain = 0
KTA1 110512Z 18004KT 25/14 A3013 RMK A01 T02470140  RH  051%=      5-min Rain = 0
KTA1 110513Z 18004KT 25/14 A3013 RMK A01 T02470140  RH  051%=      5-min Rain = 0
KTA1 110514Z 18004KT 25/14 A3013 RMK A01 T02460140  RH  052%=      5-min Rain = 0
KTA1 110515Z 18005KT 25/14 A3013 RMK A01 T02450141  RH  052%=      5-min Rain = 0
KTA1 110516Z 18005KT 24/14 A3013 RMK A01 T02440141  RH  052%=      5-min Rain = 0
KTA1 110517Z 18005KT 24/14 A3013 RMK A01 T02430141  RH  053%=      5-min Rain = 0
KTA1 110518Z 18005KT 24/14 A3013 RMK A01 T02430141  RH  053%=      5-min Rain = 0
KTA1 110519Z 18005KT 24/14 A3013 RMK A01 T02420142  RH  053%=      5-min Rain = 0
KTA1 110520Z 18005KT 24/14 A3013 RMK A01 T02420142  RH  054%=      5-min Rain = 0
KTA1 110521Z 18005KT 24/14 A3013 RMK A01 T02410142  RH  054%=      5-min Rain = 0
KTA1 110522Z 18006KT 24/14 A3013 RMK A01 T02410142  RH  054%=      5-min Rain = 0
KTA1 110523Z 18005KT 24/14 A3013 RMK A01 T02410141  RH  054%=      5-min Rain = 0
KTA1 110524Z 18006KT 24/14 A3013 RMK A01 T02410141  RH  054%=      5-min Rain = 0
KTA1 110525Z 18006KT 24/14 A3013 RMK A01 T02410140  RH  053%=      5-min Rain = 0
KTA1 110526Z 18006KT 24/14 A3013 RMK A01 T02410139  RH  053%=      5-min Rain = 0
KTA1 110527Z 18006KT 24/14 A3013 RMK A01 T02410139  RH  053%=      5-min Rain = 0
KTA1 110528Z 18006KT 24/14 A3013 RMK A01 T02420139  RH  053%=      5-min Rain = 0
KTA1 110529Z 18006KT 24/14 A3013 RMK A01 T02420139  RH  053%=      5-min Rain = 0
KTA1 110530Z 18006KT 24/14 A3013 RMK A01 T02410138  RH  052%=      5-min Rain = 0
KTA1 110531Z 17006KT 24/14 A3013 RMK A01 T02410138  RH  052%=      5-min Rain = 0
KTA1 110532Z 18006KT 24/14 A3013 RMK A01 T02420138  RH  052%=      5-min Rain = 0
KTA1 110533Z 18006KT 24/14 A3013 RMK A01 T02420137  RH  052%=      5-min Rain = 0
KTA1 110534Z 17006KT 24/14 A3013 RMK A01 T02420137  RH  052%=      5-min Rain = 0
KTA1 110535Z 17007KT 24/14 A3013 RMK A01 T02420136  RH  052%=      5-min Rain = 0
KTA1 110536Z 17006KT 24/14 A3013 RMK A01 T02420136  RH  052%=      5-min Rain = 0
KTA1 110537Z 16007KT 24/14 A3013 RMK A01 T02420136  RH  052%=      5-min Rain = 0
KTA1 110538Z 16007KT 24/14 A3013 RMK A01 T02420137  RH  052%=      5-min Rain = 0
KTA1 110539Z 16007KT 24/14 A3013 RMK A01 T02420136  RH  052%=      5-min Rain = 0
KTA1 110540Z 16007KT 24/14 A3013 RMK A01 T02410135  RH  052%=      5-min Rain = 0
KTA1 110541Z 16006KT 24/14 A3013 RMK A01 T02410136  RH  052%=      5-min Rain = 0
KTA1 110542Z 17006KT 24/14 A3013 RMK A01 T02400135  RH  052%=      5-min Rain = 0
KTA1 110543Z 17006KT 24/14 A3013 RMK A01 T02400135  RH  052%=      5-min Rain = 0
KTA1 110544Z 16006KT 24/14 A3013 RMK A01 T02400135  RH  052%=      5-min Rain = 0
KTA1 110545Z 17006KT 24/14 A3013 RMK A01 T02400135  RH  052%=      5-min Rain = 0
KTA1 110546Z 16006KT 24/13 A3013 RMK A01 T02400134  RH  051%=      5-min Rain = 0
KTA1 110547Z 16006KT 24/13 A3013 RMK A01 T02400134  RH  052%=      5-min Rain = 0
KTA1 110548Z 16006KT 24/14 A3013 RMK A01 T02400135  RH  052%=      5-min Rain = 0
KTA1 110549Z 16006KT 24/14 A3013 RMK A01 T02390135  RH  052%=      5-min Rain = 0
KTA1 110550Z 16006KT 24/14 A3013 RMK A01 T02390135  RH  052%=      5-min Rain = 0
KTA1 110551Z 16006KT 24/14 A3013 RMK A01 T02380135  RH  052%=      5-min Rain = 0
KTA1 110552Z 16006KT 24/14 A3013 RMK A01 T02380135  RH  053%=      5-min Rain = 0
KTA1 110553Z 16006KT 24/14 A3013 RMK A01 T02370136  RH  053%=      5-min Rain = 0
KTA1 110554Z 16006KT 24/14 A3013 RMK A01 T02360136  RH  053%=      5-min Rain = 0
KTA1 110555Z 16006KT 24/14 A3013 RMK A01 T02360136  RH  053%=      5-min Rain = 0
KTA1 110556Z 16006KT 24/14 A3013 RMK A01 T02350136  RH  054%=      5-min Rain = 0
KTA1 110557Z 16006KT 24/14 A3013 RMK A01 T02350136  RH  054%=      5-min Rain = 0
KTA1 110558Z 16006KT 23/14 A3013 RMK A01 T02340136  RH  054%=      5-min Rain = 0
KTA1 110559Z 16005KT 23/14 A3013 RMK A01 T02340136  RH  054%=      5-min Rain = 0
KTA1 110600Z 16005KT 23/14 A3013 RMK A01 T02340136  RH  054%=      5-min Rain = 0
KTA1 110601Z 16005KT 23/14 A3013 RMK A01 T02330136  RH  054%=      5-min Rain = 0
KTA1 110602Z 16005KT 23/14 A3013 RMK A01 T02330136  RH  054%=      5-min Rain = 0
KTA1 110603Z 16005KT 23/14 A3013 RMK A01 T02330136  RH  054%=      5-min Rain = 0
KTA1 110604Z 16005KT 23/14 A3013 RMK A01 T02330135  RH  054%=      5-min Rain = 0
KTA1 110605Z 16005KT 23/14 A3013 RMK A01 T02330135  RH  054%=      5-min Rain = 0
KTA1 110606Z 16005KT 23/14 A3013 RMK A01 T02330135  RH  054%=      5-min Rain = 0
KTA1 110607Z 16005KT 23/13 A3013 RMK A01 T02330134  RH  054%=      5-min Rain = 0
KTA1 110608Z 17005KT 23/13 A3013 RMK A01 T02330134  RH  054%=      5-min Rain = 0
KTA1 110609Z 17005KT 23/14 A3013 RMK A01 T02340135  RH  054%=      5-min Rain = 0
KTA1 110610Z 17005KT 23/13 A3013 RMK A01 T02340134  RH  053%=      5-min Rain = 0
KTA1 110611Z 17005KT 24/13 A3013 RMK A01 T02350134  RH  053%=      5-min Rain = 0
KTA1 110612Z 17005KT 24/13 A3013 RMK A01 T02350134  RH  053%=      5-min Rain = 0
KTA1 110613Z 17005KT 24/13 A3013 RMK A01 T02350134  RH  053%=      5-min Rain = 0
KTA1 110614Z 17005KT 24/13 A3013 RMK A01 T02360134  RH  053%=      5-min Rain = 0
KTA1 110615Z 17004KT 24/13 A3013 RMK A01 T02370134  RH  053%=      5-min Rain = 0
KTA1 110616Z 17005KT 24/13 A3013 RMK A01 T02370134  RH  052%=      5-min Rain = 0
KTA1 110617Z 17005KT 24/13 A3013 RMK A01 T02370134  RH  052%=      5-min Rain = 0
KTA1 110618Z 17005KT 24/13 A3013 RMK A01 T02380134  RH  052%=      5-min Rain = 0
KTA1 110619Z 17005KT 24/13 A3013 RMK A01 T02380134  RH  052%=      5-min Rain = 0
KTA1 110620Z 17005KT 24/14 A3013 RMK A01 T02380135  RH  053%=      5-min Rain = 0
KTA1 110621Z 17005KT 24/14 A3013 RMK A01 T02370135  RH  053%=      5-min Rain = 0
KTA1 110622Z 17005KT 24/14 A3013 RMK A01 T02370135  RH  053%=      5-min Rain = 0
KTA1 110623Z 17005KT 24/14 A3013 RMK A01 T02370135  RH  053%=      5-min Rain = 0
KTA1 110624Z 17005KT 24/13 A3013 RMK A01 T02360134  RH  053%=      5-min Rain = 0
KTA1 110625Z 17005KT 24/13 A3013 RMK A01 T02360134  RH  052%=      5-min Rain = 0
KTA1 110626Z 16005KT 24/13 A3013 RMK A01 T02360134  RH  053%=      5-min Rain = 0
KTA1 110627Z 17005KT 24/13 A3013 RMK A01 T02370134  RH  053%=      5-min Rain = 0
KTA1 110628Z 17005KT 24/13 A3013 RMK A01 T02360134  RH  053%=      5-min Rain = 0
KTA1 110629Z 17005KT 24/13 A3013 RMK A01 T02360134  RH  053%=      5-min Rain = 0
KTA1 110630Z 17005KT 24/13 A3013 RMK A01 T02360134  RH  053%=      5-min Rain = 0
KTA1 110631Z 17005KT 24/13 A3013 RMK A01 T02360134  RH  053%=      5-min Rain = 0
KTA1 110632Z 16005KT 24/14 A3013 RMK A01 T02360135  RH  053%=      5-min Rain = 0
KTA1 110633Z 17005KT 24/14 A3013 RMK A01 T02360135  RH  053%=      5-min Rain = 0
KTA1 110634Z 17005KT 24/14 A3013 RMK A01 T02360135  RH  053%=      5-min Rain = 0
KTA1 110635Z 17005KT 24/14 A3013 RMK A01 T02360135  RH  053%=      5-min Rain = 0
KTA1 110636Z 17005KT 24/13 A3013 RMK A01 T02360134  RH  053%=      5-min Rain = 0
KTA1 110637Z 18005KT 24/13 A3013 RMK A01 T02360134  RH  053%=      5-min Rain = 0
KTA1 110638Z 18005KT 24/14 A3013 RMK A01 T02360135  RH  053%=      5-min Rain = 0
KTA1 110639Z 17004KT 24/14 A3013 RMK A01 T02370136  RH  053%=      5-min Rain = 0
KTA1 110640Z 18005KT 24/14 A3013 RMK A01 T02360135  RH  053%=      5-min Rain = 0
KTA1 110641Z 18005KT 24/14 A3013 RMK A01 T02360135  RH  053%=      5-min Rain = 0
KTA1 110642Z 18004KT 24/14 A3013 RMK A01 T02370135  RH  053%=      5-min Rain = 0
KTA1 110643Z 17005KT 24/14 A3013 RMK A01 T02370136  RH  053%=      5-min Rain = 0
KTA1 110644Z 18004KT 24/14 A3013 RMK A01 T02370136  RH  053%=      5-min Rain = 0
KTA1 110645Z 17005KT 24/14 A3013 RMK A01 T02370136  RH  053%=      5-min Rain = 0
KTA1 110646Z 17004KT 24/14 A3013 RMK A01 T02360136  RH  053%=      5-min Rain = 0
KTA1 110647Z 17005KT 24/14 A3013 RMK A01 T02360137  RH  054%=      5-min Rain = 0
KTA1 110648Z 18004KT 24/14 A3013 RMK A01 T02360137  RH  054%=      5-min Rain = 0
KTA1 110649Z 18004KT 24/14 A3013 RMK A01 T02360137  RH  054%=      5-min Rain = 0
KTA1 110650Z 17004KT 24/14 A3013 RMK A01 T02360137  RH  054%=      5-min Rain = 0
KTA1 110651Z 18004KT 24/14 A3013 RMK A01 T02350137  RH  054%=      5-min Rain = 0
KTA1 110652Z 17005KT 24/14 A3013 RMK A01 T02350138  RH  054%=      5-min Rain = 0
KTA1 110653Z 17005KT 24/14 A3013 RMK A01 T02350138  RH  054%=      5-min Rain = 0
KTA1 110654Z 17004KT 24/14 A3013 RMK A01 T02350137  RH  054%=      5-min Rain = 0
KTA1 110655Z 17005KT 24/14 A3013 RMK A01 T02350138  RH  054%=      5-min Rain = 0
KTA1 110656Z 17005KT 24/14 A3013 RMK A01 T02350138  RH  055%=      5-min Rain = 0
KTA1 110657Z 17005KT 23/14 A3013 RMK A01 T02340139  RH  055%=      5-min Rain = 0
KTA1 110658Z 17005KT 23/14 A3013 RMK A01 T02340138  RH  055%=      5-min Rain = 0
KTA1 110659Z 17005KT 23/14 A3013 RMK A01 T02340139  RH  055%=      5-min Rain = 0
KTA1 110700Z 17005KT 23/14 A3013 RMK A01 T02340139  RH  055%=      5-min Rain = 0
KTA1 110701Z 17005KT 23/14 A3013 RMK A01 T02340138  RH  055%=      5-min Rain = 0
KTA1 110702Z 17005KT 23/14 A3013 RMK A01 T02340139  RH  055%=      5-min Rain = 0
KTA1 110703Z 17005KT 23/14 A3013 RMK A01 T02340139  RH  055%=      5-min Rain = 0
KTA1 110704Z 17005KT 23/14 A3013 RMK A01 T02340139  RH  055%=      5-min Rain = 0
KTA1 110705Z 17005KT 23/14 A3013 RMK A01 T02340139  RH  055%=      5-min Rain = 0
KTA1 110706Z 17005KT 23/14 A3013 RMK A01 T02340140  RH  055%=      5-min Rain = 0
KTA1 110707Z 17005KT 23/14 A3013 RMK A01 T02340140  RH  055%=      5-min Rain = 0
KTA1 110708Z 17005KT 23/14 A3013 RMK A01 T02340140  RH  056%=      5-min Rain = 0
KTA1 110709Z 17005KT 23/14 A3013 RMK A01 T02340140  RH  056%=      5-min Rain = 0
KTA1 110710Z 17005KT 23/14 A3013 RMK A01 T02330140  RH  056%=      5-min Rain = 0
KTA1 110711Z 17005KT 23/14 A3013 RMK A01 T02330141  RH  056%=      5-min Rain = 0
KTA1 110712Z 17005KT 23/14 A3013 RMK A01 T02330141  RH  056%=      5-min Rain = 0
KTA1 110713Z 17005KT 23/14 A3013 RMK A01 T02320141  RH  056%=      5-min Rain = 0
KTA1 110714Z 17004KT 23/14 A3013 RMK A01 T02320141  RH  056%=      5-min Rain = 0
KTA1 110715Z 17005KT 23/14 A3013 RMK A01 T02320141  RH  057%=      5-min Rain = 0
KTA1 110716Z 17005KT 23/14 A3013 RMK A01 T02320142  RH  057%=      5-min Rain = 0
KTA1 110717Z 17005KT 23/14 A3013 RMK A01 T02310142  RH  057%=      5-min Rain = 0
KTA1 110718Z 17005KT 23/14 A3013 RMK A01 T02310142  RH  057%=      5-min Rain = 0
KTA1 110719Z 17004KT 23/14 A3013 RMK A01 T02310142  RH  057%=      5-min Rain = 0
KTA1 110720Z 17005KT 23/14 A3013 RMK A01 T02310142  RH  057%=      5-min Rain = 0
KTA1 110721Z 17005KT 23/14 A3013 RMK A01 T02310142  RH  057%=      5-min Rain = 0
KTA1 110722Z 17005KT 23/14 A3013 RMK A01 T02310142  RH  057%=      5-min Rain = 0
KTA1 110723Z 17005KT 23/14 A3013 RMK A01 T02310142  RH  057%=      5-min Rain = 0
KTA1 110724Z 17005KT 23/14 A3013 RMK A01 T02310142  RH  058%=      5-min Rain = 0
KTA1 110725Z 17004KT 23/14 A3013 RMK A01 T02300142  RH  058%=      5-min Rain = 0
KTA1 110726Z 17005KT 23/14 A3013 RMK A01 T02300142  RH  057%=      5-min Rain = 0
KTA1 110727Z 18005KT 23/14 A3013 RMK A01 T02300142  RH  058%=      5-min Rain = 0
KTA1 110728Z 18005KT 23/14 A3013 RMK A01 T02300143  RH  058%=      5-min Rain = 0
KTA1 110729Z 18004KT 23/14 A3013 RMK A01 T02300143  RH  058%=      5-min Rain = 0
KTA1 110730Z 18005KT 23/14 A3013 RMK A01 T02300142  RH  058%=      5-min Rain = 0
KTA1 110731Z 17005KT 23/14 A3013 RMK A01 T02300143  RH  058%=      5-min Rain = 0
KTA1 110732Z 17004KT 23/14 A3013 RMK A01 T02300143  RH  058%=      5-min Rain = 0
KTA1 110733Z 17005KT 23/14 A3013 RMK A01 T02300143  RH  058%=      5-min Rain = 0
KTA1 110734Z 17005KT 23/14 A3013 RMK A01 T02290143  RH  058%=      5-min Rain = 0
KTA1 110735Z 17005KT 23/14 A3013 RMK A01 T02300143  RH  058%=      5-min Rain = 0
KTA1 110736Z 17004KT 23/14 A3013 RMK A01 T02290143  RH  059%=      5-min Rain = 0
KTA1 110737Z 17005KT 23/14 A3013 RMK A01 T02290143  RH  059%=      5-min Rain = 0
KTA1 110738Z 17004KT 23/14 A3013 RMK A01 T02280143  RH  059%=      5-min Rain = 0
KTA1 110739Z 16005KT 23/14 A3013 RMK A01 T02280142  RH  058%=      5-min Rain = 0
KTA1 110740Z 16005KT 23/14 A3013 RMK A01 T02280142  RH  058%=      5-min Rain = 0
KTA1 110741Z 16005KT 23/14 A3013 RMK A01 T02280142  RH  058%=      5-min Rain = 0
KTA1 110742Z 16005KT 23/14 A3013 RMK A01 T02280142  RH  058%=      5-min Rain = 0
KTA1 110743Z 16005KT 23/14 A3013 RMK A01 T02280142  RH  058%=      5-min Rain = 0
KTA1 110744Z 17005KT 23/14 A3013 RMK A01 T02280142  RH  058%=      5-min Rain = 0
KTA1 110745Z 16005KT 23/14 A3013 RMK A01 T02280142  RH  059%=      5-min Rain = 0
KTA1 110746Z 17005KT 23/14 A3013 RMK A01 T02270142  RH  059%=      5-min Rain = 0
KTA1 110747Z 17005KT 23/14 A3013 RMK A01 T02270142  RH  059%=      5-min Rain = 0
KTA1 110748Z 17004KT 23/14 A3013 RMK A01 T02270143  RH  059%=      5-min Rain = 0
KTA1 110749Z 17004KT 23/14 A3013 RMK A01 T02270144  RH  059%=      5-min Rain = 0
KTA1 110750Z 17004KT 23/14 A3013 RMK A01 T02260144  RH  059%=      5-min Rain = 0
KTA1 110751Z 17004KT 23/14 A3013 RMK A01 T02260144  RH  060%=      5-min Rain = 0
KTA1 110752Z 17005KT 23/14 A3013 RMK A01 T02260144  RH  060%=      5-min Rain = 0
KTA1 110753Z 17004KT 23/14 A3013 RMK A01 T02260144  RH  060%=      5-min Rain = 0
KTA1 110754Z 17004KT 23/14 A3013 RMK A01 T02260144  RH  060%=      5-min Rain = 0
KTA1 110755Z 16004KT 23/15 A3013 RMK A01 T02260145  RH  060%=      5-min Rain = 0
KTA1 110756Z 16004KT 23/14 A3013 RMK A01 T02250144  RH  060%=      5-min Rain = 0
KTA1 110757Z 16005KT 23/14 A3013 RMK A01 T02250144  RH  060%=      5-min Rain = 0
KTA1 110758Z 16005KT 23/14 A3013 RMK A01 T02250144  RH  060%=      5-min Rain = 0
KTA1 110759Z 16005KT 23/14 A3013 RMK A01 T02250144  RH  060%=      5-min Rain = 0
KTA1 110800Z 17005KT 22/14 A3013 RMK A01 T02240144  RH  061%=      5-min Rain = 0
KTA1 110801Z 16005KT 22/14 A3013 RMK A01 T02240144  RH  060%=      5-min Rain = 0
KTA1 110802Z 16005KT 23/14 A3013 RMK A01 T02250144  RH  060%=      5-min Rain = 0
KTA1 110803Z 16005KT 22/14 A3013 RMK A01 T02240144  RH  060%=      5-min Rain = 0
KTA1 110804Z 16005KT 22/15 A3013 RMK A01 T02240145  RH  061%=      5-min Rain = 0
KTA1 110805Z 16005KT 22/15 A3013 RMK A01 T02240145  RH  061%=      5-min Rain = 0
KTA1 110806Z 16005KT 23/15 A3013 RMK A01 T02250146  RH  061%=      5-min Rain = 0
KTA1 110807Z 16004KT 22/15 A3013 RMK A01 T02240147  RH  061%=      5-min Rain = 0
KTA1 110808Z 16004KT 22/15 A3013 RMK A01 T02240147  RH  062%=      5-min Rain = 0
KTA1 110809Z 15004KT 22/15 A3013 RMK A01 T02230147  RH  062%=      5-min Rain = 0
KTA1 110810Z 15004KT 22/15 A3013 RMK A01 T02230147  RH  062%=      5-min Rain = 0
KTA1 110811Z 15004KT 22/15 A3013 RMK A01 T02230147  RH  062%=      5-min Rain = 0
KTA1 110812Z 15004KT 22/15 A3013 RMK A01 T02220147  RH  062%=      5-min Rain = 0
KTA1 110813Z 15005KT 22/15 A3013 RMK A01 T02220147  RH  063%=      5-min Rain = 0
KTA1 110814Z 15004KT 22/15 A3013 RMK A01 T02220148  RH  063%=      5-min Rain = 0
KTA1 110815Z 15004KT 22/15 A3013 RMK A01 T02230148  RH  063%=      5-min Rain = 0
KTA1 110816Z 15004KT 22/15 A3013 RMK A01 T02240148  RH  062%=      5-min Rain = 0
KTA1 110817Z 15004KT 22/15 A3013 RMK A01 T02240149  RH  062%=      5-min Rain = 0
KTA1 110818Z 15004KT 23/15 A3013 RMK A01 T02250148  RH  062%=      5-min Rain = 0
KTA1 110819Z 15004KT 23/15 A3013 RMK A01 T02250148  RH  062%=      5-min Rain = 0
KTA1 110820Z 15004KT 23/15 A3013 RMK A01 T02260149  RH  062%=      5-min Rain = 0
KTA1 110821Z 15004KT 23/15 A3013 RMK A01 T02260149  RH  062%=      5-min Rain = 0
KTA1 110822Z 15004KT 23/15 A3013 RMK A01 T02260149  RH  062%=      5-min Rain = 0
KTA1 110823Z 15004KT 23/15 A3013 RMK A01 T02260149  RH  062%=      5-min Rain = 0
KTA1 110824Z 15004KT 23/15 A3013 RMK A01 T02260149  RH  062%=      5-min Rain = 0
KTA1 110825Z 15004KT 23/15 A3013 RMK A01 T02250149  RH  062%=      5-min Rain = 0
KTA1 110826Z 16005KT 23/15 A3013 RMK A01 T02260149  RH  062%=      5-min Rain = 0
KTA1 110827Z 15005KT 23/15 A3013 RMK A01 T02250149  RH  062%=      5-min Rain = 0
KTA1 110828Z 15005KT 23/15 A3013 RMK A01 T02250149  RH  062%=      5-min Rain = 0
KTA1 110829Z 15005KT 23/15 A3013 RMK A01 T02250148  RH  062%=      5-min Rain = 0
KTA1 110830Z 15005KT 23/15 A3013 RMK A01 T02250149  RH  062%=      5-min Rain = 0
KTA1 110831Z 15005KT 23/15 A3013 RMK A01 T02250149  RH  062%=      5-min Rain = 0
KTA1 110832Z 15005KT 23/15 A3013 RMK A01 T02250149  RH  062%=      5-min Rain = 0
KTA1 110833Z 15005KT 23/15 A3013 RMK A01 T02250148  RH  062%=      5-min Rain = 0
KTA1 110834Z 15006KT 23/15 A3013 RMK A01 T02250149  RH  062%=      5-min Rain = 0
KTA1 110835Z 15005KT 23/15 A3013 RMK A01 T02250149  RH  062%=      5-min Rain = 0
KTA1 110836Z 15006KT 23/15 A3013 RMK A01 T02250151  RH  063%=      5-min Rain = 0
KTA1 110837Z 15006KT 23/15 A3012 RMK A01 T02250151  RH  063%=      5-min Rain = 0
KTA1 110838Z 15006KT 22/15 A3012 RMK A01 T02240151  RH  063%=      5-min Rain = 0
KTA1 110839Z 14006KT 22/15 A3012 RMK A01 T02240151  RH  063%=      5-min Rain = 0
KTA1 110840Z 15006KT 22/15 A3012 RMK A01 T02240151  RH  063%=      5-min Rain = 0
KTA1 110841Z 15007KT 22/15 A3012 RMK A01 T02240152  RH  064%=      5-min Rain = 0
KTA1 110842Z 15005KT 22/15 A3012 RMK A01 T02230152  RH  064%=      5-min Rain = 0
KTA1 110843Z 15006KT 22/15 A3012 RMK A01 T02230152  RH  064%=      5-min Rain = 0
KTA1 110844Z 15006KT 22/15 A3012 RMK A01 T02230151  RH  064%=      5-min Rain = 0
KTA1 110845Z 15006KT 22/15 A3012 RMK A01 T02220152  RH  064%=      5-min Rain = 0
KTA1 110846Z 15006KT 22/15 A3012 RMK A01 T02220152  RH  064%=      5-min Rain = 0
KTA1 110847Z 14007KT 22/15 A3012 RMK A01 T02220152  RH  065%=      5-min Rain = 0
KTA1 110848Z 14006KT 22/15 A3012 RMK A01 T02220152  RH  065%=      5-min Rain = 0
KTA1 110849Z 14007KT 22/15 A3012 RMK A01 T02220153  RH  065%=      5-min Rain = 0
KTA1 110850Z 14007KT 22/15 A3012 RMK A01 T02220152  RH  065%=      5-min Rain = 0
KTA1 110851Z 15008KT 22/15 A3012 RMK A01 T02220152  RH  064%=      5-min Rain = 0
KTA1 110852Z 15008KT 22/15 A3012 RMK A01 T02220152  RH  064%=      5-min Rain = 0
KTA1 110853Z 15007KT 22/15 A3012 RMK A01 T02230152  RH  064%=      5-min Rain = 0
KTA1 110854Z 14007KT 22/15 A3012 RMK A01 T02230152  RH  064%=      5-min Rain = 0
KTA1 110855Z 15007KT 22/15 A3012 RMK A01 T02230151  RH  064%=      5-min Rain = 0
KTA1 110856Z 15007KT 22/15 A3012 RMK A01 T02230151  RH  064%=      5-min Rain = 0
KTA1 110857Z 15007KT 22/15 A3012 RMK A01 T02230151  RH  063%=      5-min Rain = 0
KTA1 110858Z 15007KT 22/15 A3012 RMK A01 T02240151  RH  063%=      5-min Rain = 0
KTA1 110859Z 15007KT 22/15 A3012 RMK A01 T02240150  RH  063%=      5-min Rain = 0
KTA1 110900Z 15007KT 23/15 A3012 RMK A01 T02250151  RH  063%=      5-min Rain = 0
KTA1 110901Z 15007KT 22/15 A3012 RMK A01 T02240151  RH  063%=      5-min Rain = 0
KTA1 110902Z 15007KT 23/15 A3012 RMK A01 T02250150  RH  062%=      5-min Rain = 0
KTA1 110903Z 15007KT 23/15 A3012 RMK A01 T02260150  RH  062%=      5-min Rain = 0
KTA1 110904Z 15007KT 23/15 A3012 RMK A01 T02260150  RH  062%=      5-min Rain = 0
KTA1 110905Z 15007KT 23/15 A3012 RMK A01 T02260150  RH  062%=      5-min Rain = 0
KTA1 110906Z 14007KT 23/15 A3012 RMK A01 T02270151  RH  062%=      5-min Rain = 0
KTA1 110907Z 15007KT 23/15 A3012 RMK A01 T02270151  RH  062%=      5-min Rain = 0
KTA1 110908Z 15007KT 23/15 A3012 RMK A01 T02260151  RH  062%=      5-min Rain = 0
KTA1 110909Z 15007KT 23/15 A3012 RMK A01 T02260151  RH  063%=      5-min Rain = 0
KTA1 110910Z 14007KT 23/15 A3012 RMK A01 T02260151  RH  063%=      5-min Rain = 0
KTA1 110911Z 14007KT 23/15 A3012 RMK A01 T02260152  RH  063%=      5-min Rain = 0
KTA1 110912Z 15007KT 23/15 A3012 RMK A01 T02250151  RH  063%=      5-min Rain = 0
KTA1 110913Z 14007KT 23/15 A3012 RMK A01 T02250151  RH  063%=      5-min Rain = 0
KTA1 110914Z 14007KT 22/15 A3012 RMK A01 T02240151  RH  063%=      5-min Rain = 0
KTA1 110915Z 14007KT 22/15 A3012 RMK A01 T02240151  RH  063%=      5-min Rain = 0
KTA1 110916Z 14007KT 22/15 A3012 RMK A01 T02240151  RH  063%=      5-min Rain = 0
KTA1 110917Z 14007KT 23/15 A3012 RMK A01 T02250151  RH  063%=      5-min Rain = 0
KTA1 110918Z 15007KT 22/15 A3012 RMK A01 T02240151  RH  063%=      5-min Rain = 0
KTA1 110919Z 15007KT 22/15 A3012 RMK A01 T02240152  RH  063%=      5-min Rain = 0
KTA1 110920Z 15007KT 23/15 A3012 RMK A01 T02250152  RH  063%=      5-min Rain = 0
KTA1 110921Z 15007KT 23/15 A3012 RMK A01 T02250152  RH  063%=      5-min Rain = 0
KTA1 110922Z 15007KT 23/15 A3012 RMK A01 T02250152  RH  063%=      5-min Rain = 0
KTA1 110923Z 15007KT 22/15 A3012 RMK A01 T02240152  RH  063%=      5-min Rain = 0
KTA1 110924Z 15006KT 23/15 A3012 RMK A01 T02250152  RH  063%=      5-min Rain = 0
KTA1 110925Z 15006KT 23/15 A3012 RMK A01 T02250152  RH  063%=      5-min Rain = 0
KTA1 110926Z 15006KT 23/15 A3012 RMK A01 T02250152  RH  063%=      5-min Rain = 0
KTA1 110927Z 15007KT 23/15 A3012 RMK A01 T02250152  RH  063%=      5-min Rain = 0
KTA1 110928Z 15007KT 23/15 A3012 RMK A01 T02260152  RH  063%=      5-min Rain = 0
KTA1 110929Z 15007KT 23/15 A3012 RMK A01 T02260152  RH  063%=      5-min Rain = 0
KTA1 110930Z 15007KT 23/15 A3012 RMK A01 T02260152  RH  063%=      5-min Rain = 0
KTA1 110931Z 15007KT 23/15 A3012 RMK A01 T02260152  RH  063%=      5-min Rain = 0
KTA1 110932Z 15007KT 23/15 A3012 RMK A01 T02260152  RH  063%=      5-min Rain = 0
KTA1 110933Z 15007KT 23/15 A3011 RMK A01 T02260152  RH  063%=      5-min Rain = 0
KTA1 110934Z 15008KT 23/15 A3011 RMK A01 T02260152  RH  063%=      5-min Rain = 0
KTA1 110935Z 15007KT 23/15 A3011 RMK A01 T02260152  RH  063%=      5-min Rain = 0
KTA1 110936Z 15008KT 23/15 A3011 RMK A01 T02260153  RH  063%=      5-min Rain = 0
KTA1 110937Z 15007KT 23/15 A3011 RMK A01 T02260153  RH  063%=      5-min Rain = 0
KTA1 110938Z 15008KT 23/15 A3011 RMK A01 T02260153  RH  063%=      5-min Rain = 0
KTA1 110939Z 15007KT 23/15 A3011 RMK A01 T02260153  RH  063%=      5-min Rain = 0
KTA1 110940Z 15008KT 23/15 A3011 RMK A01 T02260153  RH  064%=      5-min Rain = 0
KTA1 110941Z 15007KT 23/15 A3011 RMK A01 T02260153  RH  064%=      5-min Rain = 0
KTA1 110942Z 15008KT 23/15 A3011 RMK A01 T02260153  RH  064%=      5-min Rain = 0
KTA1 110943Z 15007KT 23/15 A3011 RMK A01 T02260154  RH  064%=      5-min Rain = 0
KTA1 110944Z 15007KT 23/16 A3011 RMK A01 T02270155  RH  064%=      5-min Rain = 0
KTA1 110945Z 15007KT 23/15 A3011 RMK A01 T02260154  RH  064%=      5-min Rain = 0
KTA1 110946Z 15006KT 23/16 A3011 RMK A01 T02260155  RH  064%=      5-min Rain = 0
KTA1 110947Z 15007KT 23/16 A3011 RMK A01 T02260155  RH  064%=      5-min Rain = 0
KTA1 110948Z 15007KT 23/16 A3011 RMK A01 T02260155  RH  064%=      5-min Rain = 0
KTA1 110949Z 15007KT 23/16 A3011 RMK A01 T02260155  RH  064%=      5-min Rain = 0
KTA1 110950Z 15007KT 23/16 A3011 RMK A01 T02260155  RH  064%=      5-min Rain = 0
KTA1 110951Z 16008KT 23/16 A3011 RMK A01 T02250155  RH  064%=      5-min Rain = 0
KTA1 110952Z 16007KT 23/16 A3011 RMK A01 T02260155  RH  064%=      5-min Rain = 0
KTA1 110953Z 16007KT 23/16 A3011 RMK A01 T02250155  RH  064%=      5-min Rain = 0
KTA1 110954Z 15008KT 23/16 A3011 RMK A01 T02260155  RH  064%=      5-min Rain = 0
KTA1 110955Z 15007KT 23/16 A3011 RMK A01 T02250155  RH  064%=      5-min Rain = 0
KTA1 110956Z 16007KT 23/16 A3011 RMK A01 T02250156  RH  065%=      5-min Rain = 0
KTA1 110957Z 16008KT 23/16 A3011 RMK A01 T02250156  RH  065%=      5-min Rain = 0
KTA1 110958Z 15007KT 23/16 A3011 RMK A01 T02260156  RH  065%=      5-min Rain = 0
KTA1 110959Z 15009KT 23/16 A3011 RMK A01 T02250156  RH  065%=      5-min Rain = 0
KTA1 111000Z 16008KT 23/16 A3011 RMK A01 T02250156  RH  065%=      5-min Rain = 0
KTA1 111001Z 16009KT 23/16 A3011 RMK A01 T02250156  RH  065%=      5-min Rain = 0
KTA1 111002Z 16008KT 23/16 A3011 RMK A01 T02260156  RH  065%=      5-min Rain = 0
KTA1 111003Z 15007KT 23/16 A3011 RMK A01 T02260157  RH  065%=      5-min Rain = 0
KTA1 111004Z 15008KT 23/16 A3011 RMK A01 T02260157  RH  065%=      5-min Rain = 0
KTA1 111005Z 15008KT 23/16 A3011 RMK A01 T02260157  RH  065%=      5-min Rain = 0
KTA1 111006Z 15007KT 23/16 A3011 RMK A01 T02250157  RH  065%=      5-min Rain = 0
KTA1 111007Z 16007KT 23/16 A3011 RMK A01 T02250157  RH  065%=      5-min Rain = 0
KTA1 111008Z 16008KT 23/16 A3011 RMK A01 T02250157  RH  066%=      5-min Rain = 0
KTA1 111009Z 16008KT 23/16 A3011 RMK A01 T02250157  RH  065%=      5-min Rain = 0
KTA1 111010Z 15007KT 23/16 A3011 RMK A01 T02250157  RH  065%=      5-min Rain = 0
KTA1 111011Z 16007KT 23/16 A3011 RMK A01 T02250158  RH  066%=      5-min Rain = 0
KTA1 111012Z 15007KT 23/16 A3011 RMK A01 T02250158  RH  066%=      5-min Rain = 0
KTA1 111013Z 16007KT 23/16 A3011 RMK A01 T02250158  RH  066%=      5-min Rain = 0
KTA1 111014Z 15008KT 23/16 A3011 RMK A01 T02250158  RH  066%=      5-min Rain = 0
KTA1 111015Z 15007KT 22/16 A3011 RMK A01 T02240158  RH  066%=      5-min Rain = 0
KTA1 111016Z 15007KT 22/16 A3011 RMK A01 T02240158  RH  066%=      5-min Rain = 0
KTA1 111017Z 16006KT 22/16 A3011 RMK A01 T02240159  RH  066%=      5-min Rain = 0
KTA1 111018Z 15008KT 22/16 A3011 RMK A01 T02240159  RH  067%=      5-min Rain = 0
KTA1 111019Z 15007KT 22/16 A3011 RMK A01 T02240159  RH  067%=      5-min Rain = 0
KTA1 111020Z 15007KT 22/16 A3011 RMK A01 T02240159  RH  067%=      5-min Rain = 0
KTA1 111021Z 15008KT 22/16 A3011 RMK A01 T02240159  RH  067%=      5-min Rain = 0
KTA1 111022Z 15007KT 22/16 A3011 RMK A01 T02240159  RH  067%=      5-min Rain = 0
KTA1 111023Z 15007KT 22/16 A3011 RMK A01 T02240159  RH  067%=      5-min Rain = 0
KTA1 111024Z 15007KT 22/16 A3011 RMK A01 T02240160  RH  067%=      5-min Rain = 0
KTA1 111025Z 16007KT 22/16 A3011 RMK A01 T02240160  RH  067%=      5-min Rain = 0
KTA1 111026Z 16008KT 22/16 A3011 RMK A01 T02230160  RH  067%=      5-min Rain = 0
KTA1 111027Z 16006KT 22/16 A3011 RMK A01 T02230160  RH  067%=      5-min Rain = 0
KTA1 111028Z 16007KT 22/16 A3011 RMK A01 T02230160  RH  067%=      5-min Rain = 0
KTA1 111029Z 16007KT 22/16 A3011 RMK A01 T02230160  RH  067%=      5-min Rain = 0
KTA1 111030Z 16007KT 22/16 A3011 RMK A01 T02230160  RH  067%=      5-min Rain = 0
KTA1 111031Z 16007KT 22/16 A3011 RMK A01 T02230160  RH  067%=      5-min Rain = 0
KTA1 111032Z 16007KT 22/16 A3011 RMK A01 T02230160  RH  068%=      5-min Rain = 0
KTA1 111033Z 16007KT 22/16 A3011 RMK A01 T02220160  RH  068%=      5-min Rain = 0
KTA1 111034Z 16006KT 22/16 A3011 RMK A01 T02220161  RH  068%=      5-min Rain = 0
KTA1 111035Z 16006KT 22/16 A3011 RMK A01 T02220161  RH  068%=      5-min Rain = 0
KTA1 111036Z 16007KT 22/16 A3011 RMK A01 T02220160  RH  068%=      5-min Rain = 0
KTA1 111037Z 16007KT 22/16 A3011 RMK A01 T02220161  RH  068%=      5-min Rain = 0
KTA1 111038Z 16006KT 22/16 A3011 RMK A01 T02210161  RH  069%=      5-min Rain = 0
KTA1 111039Z 16007KT 22/16 A3011 RMK A01 T02210161  RH  069%=      5-min Rain = 0
KTA1 111040Z 16007KT 22/16 A3011 RMK A01 T02210161  RH  069%=      5-min Rain = 0
KTA1 111041Z 16006KT 22/16 A3011 RMK A01 T02210160  RH  069%=      5-min Rain = 0
KTA1 111042Z 16007KT 22/16 A3011 RMK A01 T02210161  RH  069%=      5-min Rain = 0
KTA1 111043Z 16007KT 22/16 A3011 RMK A01 T02210161  RH  069%=      5-min Rain = 0
KTA1 111044Z 16006KT 22/16 A3011 RMK A01 T02210161  RH  069%=      5-min Rain = 0
KTA1 111045Z 16007KT 22/16 A3011 RMK A01 T02210161  RH  069%=      5-min Rain = 0
KTA1 111046Z 16006KT 22/16 A3011 RMK A01 T02210161  RH  069%=      5-min Rain = 0
KTA1 111047Z 16007KT 22/16 A3011 RMK A01 T02200161  RH  069%=      5-min Rain = 0
KTA1 111048Z 16007KT 22/16 A3011 RMK A01 T02200162  RH  069%=      5-min Rain = 0
KTA1 111049Z 15007KT 22/16 A3011 RMK A01 T02200161  RH  069%=      5-min Rain = 0
KTA1 111050Z 15007KT 22/16 A3011 RMK A01 T02200162  RH  070%=      5-min Rain = 0
KTA1 111051Z 16007KT 22/16 A3011 RMK A01 T02190162  RH  070%=      5-min Rain = 0
KTA1 111052Z 15007KT 22/16 A3011 RMK A01 T02200162  RH  070%=      5-min Rain = 0
KTA1 111053Z 15007KT 22/16 A3011 RMK A01 T02190161  RH  070%=      5-min Rain = 0
KTA1 111054Z 15006KT 22/16 A3011 RMK A01 T02190162  RH  070%=      5-min Rain = 0
KTA1 111055Z 15007KT 22/16 A3011 RMK A01 T02190162  RH  070%=      5-min Rain = 0
KTA1 111056Z 15007KT 22/16 A3011 RMK A01 T02190162  RH  070%=      5-min Rain = 0
KTA1 111057Z 15007KT 22/16 A3011 RMK A01 T02190162  RH  070%=      5-min Rain = 0
KTA1 111058Z 16007KT 22/16 A3011 RMK A01 T02190162  RH  070%=      5-min Rain = 0
KTA1 111059Z 16007KT 22/16 A3011 RMK A01 T02190162  RH  070%=      5-min Rain = 0
KTA1 111100Z 16007KT 22/16 A3011 RMK A01 T02190162  RH  070%=      5-min Rain = 0
KTA1 111101Z 16007KT 22/16 A3012 RMK A01 T02190163  RH  070%=      5-min Rain = 0
KTA1 111102Z 16007KT 22/16 A3012 RMK A01 T02190163  RH  070%=      5-min Rain = 0
KTA1 111103Z 16007KT 22/16 A3012 RMK A01 T02180162  RH  071%=      5-min Rain = 0
KTA1 111104Z 16007KT 22/16 A3012 RMK A01 T02180162  RH  071%=      5-min Rain = 0
KTA1 111105Z 16007KT 22/16 A3012 RMK A01 T02180162  RH  071%=      5-min Rain = 0
KTA1 111106Z 16007KT 22/16 A3012 RMK A01 T02180163  RH  071%=      5-min Rain = 0
KTA1 111107Z 15006KT 22/16 A3012 RMK A01 T02180163  RH  071%=      5-min Rain = 0
KTA1 111108Z 15007KT 22/16 A3012 RMK A01 T02170163  RH  071%=      5-min Rain = 0
KTA1 111109Z 15006KT 22/16 A3012 RMK A01 T02170163  RH  071%=      5-min Rain = 0
KTA1 111110Z 15006KT 22/16 A3012 RMK A01 T02170163  RH  071%=      5-min Rain = 0
KTA1 111111Z 15007KT 22/16 A3012 RMK A01 T02170163  RH  071%=      5-min Rain = 0
KTA1 111112Z 15007KT 22/16 A3012 RMK A01 T02170163  RH  071%=      5-min Rain = 0
KTA1 111113Z 15006KT 22/16 A3012 RMK A01 T02170163  RH  071%=      5-min Rain = 0
KTA1 111114Z 15007KT 22/16 A3012 RMK A01 T02170163  RH  071%=      5-min Rain = 0
KTA1 111115Z 15007KT 22/16 A3012 RMK A01 T02170163  RH  071%=      5-min Rain = 0
KTA1 111116Z 15006KT 22/16 A3012 RMK A01 T02170164  RH  071%=      5-min Rain = 0
KTA1 111117Z 15007KT 22/16 A3012 RMK A01 T02170163  RH  072%=      5-min Rain = 0
KTA1 111118Z 15006KT 22/16 A3012 RMK A01 T02170164  RH  072%=      5-min Rain = 0
KTA1 111119Z 15007KT 22/16 A3012 RMK A01 T02170164  RH  072%=      5-min Rain = 0
KTA1 111120Z 15006KT 22/16 A3012 RMK A01 T02170164  RH  072%=      5-min Rain = 0
KTA1 111121Z 15006KT 22/16 A3012 RMK A01 T02170164  RH  072%=      5-min Rain = 0
KTA1 111122Z 15007KT 22/16 A3012 RMK A01 T02170164  RH  072%=      5-min Rain = 0
KTA1 111123Z 15007KT 22/16 A3012 RMK A01 T02170164  RH  072%=      5-min Rain = 0
KTA1 111124Z 15007KT 22/16 A3012 RMK A01 T02170164  RH  072%=      5-min Rain = 0
KTA1 111125Z 14007KT 22/16 A3012 RMK A01 T02170164  RH  072%=      5-min Rain = 0
KTA1 111126Z 14007KT 22/16 A3012 RMK A01 T02170164  RH  072%=      5-min Rain = 0
KTA1 111127Z 15007KT 22/16 A3012 RMK A01 T02160164  RH  072%=      5-min Rain = 0
KTA1 111128Z 14006KT 22/17 A3012 RMK A01 T02170165  RH  072%=      5-min Rain = 0
KTA1 111129Z 14007KT 22/17 A3012 RMK A01 T02160165  RH  072%=      5-min Rain = 0
KTA1 111130Z 15007KT 22/17 A3012 RMK A01 T02160165  RH  073%=      5-min Rain = 0
KTA1 111131Z 15007KT 22/17 A3012 RMK A01 T02160165  RH  073%=      5-min Rain = 0
KTA1 111132Z 15006KT 22/17 A3012 RMK A01 T02160165  RH  073%=      5-min Rain = 0
KTA1 111133Z 14006KT 22/17 A3012 RMK A01 T02160165  RH  073%=      5-min Rain = 0
KTA1 111134Z 14006KT 22/17 A3012 RMK A01 T02160166  RH  073%=      5-min Rain = 0
KTA1 111135Z 14006KT 22/17 A3012 RMK A01 T02160165  RH  073%=      5-min Rain = 0
KTA1 111136Z 14006KT 22/17 A3013 RMK A01 T02160165  RH  073%=      5-min Rain = 0
KTA1 111137Z 14006KT 22/17 A3013 RMK A01 T02160166  RH  073%=      5-min Rain = 0
KTA1 111138Z 14006KT 22/17 A3013 RMK A01 T02160166  RH  073%=      5-min Rain = 0
KTA1 111139Z 14006KT 22/17 A3013 RMK A01 T02160166  RH  073%=      5-min Rain = 0
KTA1 111140Z 14007KT 22/17 A3013 RMK A01 T02160166  RH  073%=      5-min Rain = 0
KTA1 111141Z 14007KT 22/17 A3013 RMK A01 T02160166  RH  073%=      5-min Rain = 0
KTA1 111142Z 14006KT 22/17 A3013 RMK A01 T02150166  RH  073%=      5-min Rain = 0
KTA1 111143Z 14007KT 22/17 A3013 RMK A01 T02150166  RH  074%=      5-min Rain = 0
KTA1 111144Z 14006KT 22/17 A3013 RMK A01 T02150166  RH  074%=      5-min Rain = 0
KTA1 111145Z 14006KT 22/17 A3013 RMK A01 T02150166  RH  074%=      5-min Rain = 0
KTA1 111146Z 14007KT 22/17 A3013 RMK A01 T02150166  RH  074%=      5-min Rain = 0
KTA1 111147Z 14007KT 22/17 A3013 RMK A01 T02150167  RH  074%=      5-min Rain = 0
KTA1 111148Z 14006KT 22/17 A3013 RMK A01 T02150167  RH  074%=      5-min Rain = 0
KTA1 111149Z 14007KT 22/17 A3013 RMK A01 T02150167  RH  074%=      5-min Rain = 0
KTA1 111150Z 14007KT 22/17 A3013 RMK A01 T02150167  RH  074%=      5-min Rain = 0
KTA1 111151Z 14006KT 22/17 A3013 RMK A01 T02150167  RH  074%=      5-min Rain = 0
KTA1 111152Z 14007KT 22/17 A3013 RMK A01 T02150167  RH  074%=      5-min Rain = 0
KTA1 111153Z 14006KT 21/17 A3013 RMK A01 T02140167  RH  074%=      5-min Rain = 0
KTA1 111154Z 14007KT 21/17 A3013 RMK A01 T02140167  RH  075%=      5-min Rain = 0
KTA1 111155Z 14007KT 21/17 A3013 RMK A01 T02140167  RH  075%=      5-min Rain = 0
KTA1 111156Z 14007KT 22/17 A3013 RMK A01 T02150168  RH  075%=      5-min Rain = 0
KTA1 111157Z 14007KT 21/17 A3013 RMK A01 T02140168  RH  075%=      5-min Rain = 0
KTA1 111158Z 14008KT 21/17 A3013 RMK A01 T02140167  RH  075%=      5-min Rain = 0
KTA1 111159Z 15007KT 21/17 A3013 RMK A01 T02140168  RH  075%=      5-min Rain = 0
KTA1 111200Z 14007KT 21/17 A3013 RMK A01 T02140167  RH  075%=      5-min Rain = 0
KTA1 111201Z 14007KT 21/17 A3013 RMK A01 T02140168  RH  075%=      5-min Rain = 0
KTA1 111202Z 15007KT 21/17 A3013 RMK A01 T02140168  RH  075%=      5-min Rain = 0
KTA1 111203Z 15007KT 21/17 A3013 RMK A01 T02140168  RH  075%=      5-min Rain = 0
KTA1 111204Z 15007KT 21/17 A3013 RMK A01 T02140168  RH  075%=      5-min Rain = 0
KTA1 111205Z 15007KT 21/17 A3013 RMK A01 T02140168  RH  075%=      5-min Rain = 0
KTA1 111206Z 15007KT 21/17 A3013 RMK A01 T02140168  RH  075%=      5-min Rain = 0
KTA1 111207Z 15007KT 22/17 A3013 RMK A01 T02150169  RH  075%=      5-min Rain = 0
KTA1 111208Z 15006KT 22/17 A3013 RMK A01 T02150168  RH  075%=      5-min Rain = 0
KTA1 111209Z 14007KT 22/17 A3013 RMK A01 T02150168  RH  075%=      5-min Rain = 0
KTA1 111210Z 15007KT 22/17 A3013 RMK A01 T02150168  RH  075%=      5-min Rain = 0
KTA1 111211Z 15006KT 22/17 A3013 RMK A01 T02150168  RH  075%=      5-min Rain = 0
KTA1 111212Z 15007KT 22/17 A3013 RMK A01 T02160169  RH  075%=      5-min Rain = 0
KTA1 111213Z 15007KT 22/17 A3014 RMK A01 T02160169  RH  075%=      5-min Rain = 0
KTA1 111214Z 15006KT 22/17 A3014 RMK A01 T02160169  RH  074%=      5-min Rain = 0
KTA1 111215Z 15007KT 22/17 A3014 RMK A01 T02160169  RH  074%=      5-min Rain = 0
KTA1 111216Z 15007KT 22/17 A3014 RMK A01 T02160169  RH  074%=      5-min Rain = 0
KTA1 111217Z 15006KT 22/17 A3014 RMK A01 T02170170  RH  074%=      5-min Rain = 0
KTA1 111218Z 15007KT 22/17 A3014 RMK A01 T02170170  RH  074%=      5-min Rain = 0
KTA1 111219Z 15007KT 22/17 A3013 RMK A01 T02170170  RH  074%=      5-min Rain = 0
KTA1 111220Z 16006KT 22/17 A3014 RMK A01 T02180170  RH  074%=      5-min Rain = 0
KTA1 111221Z 15008KT 22/17 A3014 RMK A01 T02180170  RH  074%=      5-min Rain = 0
KTA1 111222Z 15007KT 22/17 A3014 RMK A01 T02180170  RH  074%=      5-min Rain = 0
KTA1 111223Z 16006KT 22/17 A3014 RMK A01 T02180170  RH  074%=      5-min Rain = 0
KTA1 111224Z 16007KT 22/17 A3014 RMK A01 T02190170  RH  074%=      5-min Rain = 0
KTA1 111225Z 15006KT 22/17 A3014 RMK A01 T02190170  RH  074%=      5-min Rain = 0
KTA1 111226Z 16007KT 22/17 A3014 RMK A01 T02190171  RH  074%=      5-min Rain = 0
KTA1 111227Z 16007KT 22/17 A3014 RMK A01 T02190171  RH  074%=      5-min Rain = 0
KTA1 111228Z 16007KT 22/17 A3014 RMK A01 T02200171  RH  074%=      5-min Rain = 0
KTA1 111229Z 16007KT 22/17 A3014 RMK A01 T02200171  RH  074%=      5-min Rain = 0
KTA1 111230Z 16008KT 22/17 A3014 RMK A01 T02200171  RH  074%=      5-min Rain = 0
KTA1 111231Z 17008KT 22/17 A3014 RMK A01 T02210171  RH  073%=      5-min Rain = 0
KTA1 111232Z 16007KT 22/17 A3014 RMK A01 T02210171  RH  073%=      5-min Rain = 0
KTA1 111233Z 16006KT 22/17 A3014 RMK A01 T02210172  RH  073%=      5-min Rain = 0
KTA1 111234Z 16007KT 22/17 A3014 RMK A01 T02220172  RH  073%=      5-min Rain = 0
KTA1 111235Z 16007KT 22/17 A3014 RMK A01 T02220172  RH  073%=      5-min Rain = 0
KTA1 111236Z 16006KT 22/17 A3014 RMK A01 T02220172  RH  073%=      5-min Rain = 0
KTA1 111237Z 16007KT 22/17 A3014 RMK A01 T02220172  RH  073%=      5-min Rain = 0
KTA1 111238Z 16008KT 22/17 A3014 RMK A01 T02230173  RH  073%=      5-min Rain = 0
KTA1 111239Z 16007KT 22/17 A3014 RMK A01 T02230173  RH  073%=      5-min Rain = 0
KTA1 111240Z 16007KT 22/17 A3014 RMK A01 T02230172  RH  073%=      5-min Rain = 0
KTA1 111241Z 16008KT 22/17 A3014 RMK A01 T02230173  RH  073%=      5-min Rain = 0
KTA1 111242Z 16008KT 22/17 A3014 RMK A01 T02230173  RH  073%=      5-min Rain = 0
KTA1 111243Z 16007KT 22/17 A3014 RMK A01 T02240173  RH  073%=      5-min Rain = 0
KTA1 111244Z 16008KT 22/17 A3014 RMK A01 T02240174  RH  073%=      5-min Rain = 0
KTA1 111245Z 16007KT 22/17 A3014 RMK A01 T02240174  RH  073%=      5-min Rain = 0
KTA1 111246Z 16007KT 23/17 A3014 RMK A01 T02250174  RH  073%=      5-min Rain = 0
KTA1 111247Z 16008KT 23/17 A3014 RMK A01 T02250174  RH  073%=      5-min Rain = 0
KTA1 111248Z 16008KT 23/17 A3014 RMK A01 T02260174  RH  073%=      5-min Rain = 0
KTA1 111249Z 16005KT 23/17 A3014 RMK A01 T02260174  RH  073%=      5-min Rain = 0
KTA1 111250Z 16007KT 23/18 A3014 RMK A01 T02260175  RH  073%=      5-min Rain = 0
KTA1 111251Z 17009KT 23/18 A3014 RMK A01 T02260175  RH  073%=      5-min Rain = 0
KTA1 111252Z 16008KT 23/18 A3014 RMK A01 T02270175  RH  072%=      5-min Rain = 0
KTA1 111253Z 16007KT 23/18 A3014 RMK A01 T02270175  RH  072%=      5-min Rain = 0
KTA1 111254Z 17010KT 23/18 A3014 RMK A01 T02280176  RH  072%=      5-min Rain = 0
KTA1 111255Z 16009KT 23/18 A3014 RMK A01 T02280175  RH  072%=      5-min Rain = 0
KTA1 111256Z 17008KT 23/18 A3014 RMK A01 T02280176  RH  072%=      5-min Rain = 0
KTA1 111257Z 17007KT 23/18 A3014 RMK A01 T02290176  RH  072%=      5-min Rain = 0
KTA1 111258Z 17008KT 23/18 A3014 RMK A01 T02290176  RH  072%=      5-min Rain = 0
KTA1 111259Z 17006KT 23/18 A3014 RMK A01 T02290176  RH  072%=      5-min Rain = 0
KTA1 111300Z 17007KT 23/18 A3014 RMK A01 T02300177  RH  072%=      5-min Rain = 0
KTA1 111301Z 17008KT 23/18 A3014 RMK A01 T02300177  RH  072%=      5-min Rain = 0
KTA1 111302Z 17008KT 23/18 A3014 RMK A01 T02300177  RH  072%=      5-min Rain = 0
KTA1 111303Z 16010KT 23/18 A3014 RMK A01 T02300177  RH  072%=      5-min Rain = 0
KTA1 111304Z 17008KT 23/18 A3014 RMK A01 T02300176  RH  072%=      5-min Rain = 0
KTA1 111305Z 17009KT 23/18 A3014 RMK A01 T02300177  RH  072%=      5-min Rain = 0
KTA1 111306Z 17010KT 23/18 A3014 RMK A01 T02300177  RH  072%=      5-min Rain = 0
KTA1 111307Z 17009KT 23/18 A3014 RMK A01 T02310177  RH  072%=      5-min Rain = 0
KTA1 111308Z 16009KT 23/18 A3014 RMK A01 T02310177  RH  072%=      5-min Rain = 0
KTA1 111309Z 17010KT 23/18 A3014 RMK A01 T02310177  RH  072%=      5-min Rain = 0
KTA1 111310Z 17010KT 23/18 A3014 RMK A01 T02310177  RH  072%=      5-min Rain = 0
KTA1 111311Z 16009KT 23/18 A3014 RMK A01 T02320178  RH  072%=      5-min Rain = 0
KTA1 111312Z 17010KT 23/18 A3014 RMK A01 T02320178  RH  072%=      5-min Rain = 0
KTA1 111313Z 16009KT 23/18 A3014 RMK A01 T02320178  RH  072%=      5-min Rain = 0
KTA1 111314Z 16010KT 23/18 A3014 RMK A01 T02320178  RH  072%=      5-min Rain = 0
KTA1 111315Z 17012KT 23/18 A3014 RMK A01 T02320178  RH  072%=      5-min Rain = 0
KTA1 111316Z 17011KT 23/18 A3014 RMK A01 T02320178  RH  072%=      5-min Rain = 0
KTA1 111317Z 17010KT 23/18 A3014 RMK A01 T02320179  RH  072%=      5-min Rain = 0
KTA1 111318Z 17010KT 23/18 A3014 RMK A01 T02320179  RH  072%=      5-min Rain = 0
KTA1 111319Z 17009KT 23/18 A3015 RMK A01 T02320179  RH  072%=      5-min Rain = 0
KTA1 111320Z 17010KT 23/18 A3015 RMK A01 T02320179  RH  072%=      5-min Rain = 0
KTA1 111321Z 17010KT 23/18 A3015 RMK A01 T02330180  RH  072%=      5-min Rain = 0
KTA1 111322Z 17012KT 23/18 A3014 RMK A01 T02330180  RH  072%=      5-min Rain = 0
KTA1 111323Z 17011KT 23/18 A3014 RMK A01 T02330179  RH  072%=      5-min Rain = 0
KTA1 111324Z 16010KT 23/18 A3015 RMK A01 T02330180  RH  072%=      5-min Rain = 0
KTA1 111325Z 17010KT 23/18 A3015 RMK A01 T02340180  RH  072%=      5-min Rain = 0
KTA1 111326Z 17013KT 23/18 A3014 RMK A01 T02340181  RH  072%=      5-min Rain = 0
KTA1 111327Z 17010KT 23/18 A3015 RMK A01 T02340180  RH  072%=      5-min Rain = 0
KTA1 111328Z 17010KT 24/18 A3014 RMK A01 T02350181  RH  072%=      5-min Rain = 0
KTA1 111329Z 16011KT 24/18 A3014 RMK A01 T02360181  RH  072%=      5-min Rain = 0
KTA1 111330Z 17010KT 24/18 A3014 RMK A01 T02360182  RH  072%=      5-min Rain = 0
KTA1 111331Z 17012KT 24/18 A3015 RMK A01 T02360182  RH  071%=      5-min Rain = 0
KTA1 111332Z 17011KT 24/18 A3015 RMK A01 T02360182  RH  071%=      5-min Rain = 0
KTA1 111333Z 17010KT 24/18 A3015 RMK A01 T02370182  RH  071%=      5-min Rain = 0
KTA1 111334Z 17008KT 24/18 A3015 RMK A01 T02380184  RH  072%=      5-min Rain = 0
KTA1 111335Z 18010KT 24/18 A3015 RMK A01 T02390184  RH  071%=      5-min Rain = 0
KTA1 111336Z 17013KT 24/18 A3015 RMK A01 T02400184  RH  071%=      5-min Rain = 0
KTA1 111337Z 17013KT 24/18 A3015 RMK A01 T02400183  RH  071%=      5-min Rain = 0
KTA1 111338Z 17012KT 24/18 A3015 RMK A01 T02400184  RH  071%=      5-min Rain = 0
KTA1 111339Z 17014KT 24/18 A3015 RMK A01 T02400183  RH  071%=      5-min Rain = 0
KTA1 111340Z 17011KT 24/18 A3015 RMK A01 T02400184  RH  071%=      5-min Rain = 0
KTA1 111341Z 17013KT 24/19 A3015 RMK A01 T02410185  RH  071%=      5-min Rain = 0
KTA1 111342Z 18015KT 24/18 A3015 RMK A01 T02420184  RH  070%=      5-min Rain = 0
KTA1 111343Z 17014KT 24/18 A3015 RMK A01 T02420184  RH  070%=      5-min Rain = 0
KTA1 111344Z 17012KT 24/18 A3015 RMK A01 T02410184  RH  071%=      5-min Rain = 0
KTA1 111345Z 18012KT 24/19 A3015 RMK A01 T02420185  RH  070%=      5-min Rain = 0
KTA1 111346Z 18013KT 24/19 A3015 RMK A01 T02420185  RH  070%=      5-min Rain = 0
KTA1 111347Z 17012KT 24/18 A3015 RMK A01 T02420184  RH  070%=      5-min Rain = 0
KTA1 111348Z 17012KT 24/18 A3015 RMK A01 T02420184  RH  070%=      5-min Rain = 0
KTA1 111349Z 17013KT 24/19 A3015 RMK A01 T02430185  RH  070%=      5-min Rain = 0
KTA1 111350Z 17013KT 24/19 A3015 RMK A01 T02430185  RH  070%=      5-min Rain = 0
KTA1 111351Z 17014KT 24/18 A3015 RMK A01 T02430184  RH  070%=      5-min Rain = 0
KTA1 111352Z 17015KT 24/18 A3015 RMK A01 T02420184  RH  070%=      5-min Rain = 0
KTA1 111353Z 17013KT 24/19 A3015 RMK A01 T02430185  RH  070%=      5-min Rain = 0
KTA1 111354Z 17011KT 24/19 A3015 RMK A01 T02430185  RH  070%=      5-min Rain = 0
KTA1 111355Z 17012KT 24/19 A3015 RMK A01 T02430185  RH  070%=      5-min Rain = 0
KTA1 111356Z 16012KT 24/19 A3015 RMK A01 T02440185  RH  070%=      5-min Rain = 0
KTA1 111357Z 17012KT 24/19 A3015 RMK A01 T02440186  RH  070%=      5-min Rain = 0
KTA1 111358Z 17010KT 24/19 A3015 RMK A01 T02440185  RH  070%=      5-min Rain = 0
KTA1 111359Z 17012KT 24/19 A3015 RMK A01 T02440186  RH  070%=      5-min Rain = 0
KTA1 111400Z 17012KT 25/19 A3015 RMK A01 T02450185  RH  069%=      5-min Rain = 0
KTA1 111401Z 17011KT 25/19 A3015 RMK A01 T02460185  RH  069%=      5-min Rain = 0
KTA1 111402Z 17013KT 25/19 A3015 RMK A01 T02460186  RH  069%=      5-min Rain = 0
KTA1 111403Z 17012KT 25/18 A3015 RMK A01 T02460184  RH  068%=      5-min Rain = 0
KTA1 111404Z 17013KT 25/18 A3015 RMK A01 T02460184  RH  068%=      5-min Rain = 0
KTA1 111405Z 17012KT 25/19 A3015 RMK A01 T02470185  RH  068%=      5-min Rain = 0
KTA1 111406Z 16012KT 25/19 A3015 RMK A01 T02470185  RH  069%=      5-min Rain = 0
KTA1 111407Z 17011KT 25/19 A3015 RMK A01 T02480186  RH  069%=      5-min Rain = 0
KTA1 111408Z 17010KT 25/19 A3015 RMK A01 T02490185  RH  068%=      5-min Rain = 0
KTA1 111409Z 16013KT 25/19 A3015 RMK A01 T02490186  RH  068%=      5-min Rain = 0
KTA1 111410Z 16013KT 25/19 A3015 RMK A01 T02490186  RH  068%=      5-min Rain = 0
KTA1 111411Z 17011KT 25/19 A3015 RMK A01 T02490185  RH  068%=      5-min Rain = 0
KTA1 111412Z 17013KT 25/19 A3015 RMK A01 T02490186  RH  068%=      5-min Rain = 0
KTA1 111413Z 16012KT 25/18 A3015 RMK A01 T02490184  RH  067%=      5-min Rain = 0
KTA1 111414Z 17011KT 25/19 A3015 RMK A01 T02500186  RH  068%=      5-min Rain = 0
KTA1 111415Z 16012KT 25/19 A3015 RMK A01 T02500186  RH  067%=      5-min Rain = 0
KTA1 111416Z 16013KT 25/19 A3015 RMK A01 T02510185  RH  067%=      5-min Rain = 0
KTA1 111417Z 17012KT 25/19 A3015 RMK A01 T02510185  RH  067%=      5-min Rain = 0
KTA1 111418Z 16011KT 25/19 A3015 RMK A01 T02510186  RH  067%=      5-min Rain = 0
KTA1 111419Z 17010KT 25/19 A3015 RMK A01 T02510187  RH  067%=      5-min Rain = 0
KTA1 111420Z 17009KT 25/19 A3015 RMK A01 T02530186  RH  067%=      5-min Rain = 0
KTA1 111421Z 18012KT 25/19 A3015 RMK A01 T02540187  RH  066%=      5-min Rain = 0
KTA1 111422Z 18010KT 26/19 A3015 RMK A01 T02550185  RH  065%=      5-min Rain = 0
KTA1 111423Z 18011G16KT 26/19 A3015 RMK A01 T02560185  RH  065%=      5-min Rain = 0
KTA1 111424Z 18013KT 26/19 A3015 RMK A01 T02560186  RH  065%=      5-min Rain = 0
KTA1 111425Z 18013KT 26/19 A3015 RMK A01 T02560185  RH  065%=      5-min Rain = 0
KTA1 111426Z 18011KT 26/19 A3015 RMK A01 T02560185  RH  065%=      5-min Rain = 0
KTA1 111427Z 17011KT 26/19 A3015 RMK A01 T02560186  RH  065%=      5-min Rain = 0
KTA1 111428Z 17012KT 26/19 A3015 RMK A01 T02570185  RH  065%=      5-min Rain = 0
KTA1 111429Z 16013KT 26/19 A3015 RMK A01 T02570186  RH  065%=      5-min Rain = 0
KTA1 111430Z 18012KT 26/18 A3015 RMK A01 T02570184  RH  064%=      5-min Rain = 0
KTA1 111431Z 18012KT 26/19 A3015 RMK A01 T02570185  RH  064%=      5-min Rain = 0
KTA1 111432Z 17011KT 26/19 A3015 RMK A01 T02580185  RH  064%=      5-min Rain = 0
KTA1 111433Z 17011KT 26/19 A3015 RMK A01 T02580186  RH  064%=      5-min Rain = 0
KTA1 111434Z 17011KT 26/19 A3015 RMK A01 T02590186  RH  064%=      5-min Rain = 0
KTA1 111435Z 16012KT 26/19 A3015 RMK A01 T02590187  RH  064%=      5-min Rain = 0
KTA1 111436Z 17013KT 26/19 A3015 RMK A01 T02590185  RH  064%=      5-min Rain = 0
KTA1 111437Z 18012KT 26/19 A3015 RMK A01 T02590185  RH  064%=      5-min Rain = 0
KTA1 111438Z 17013KT 26/19 A3015 RMK A01 T02590185  RH  063%=      5-min Rain = 0
KTA1 111439Z 17012KT 26/18 A3015 RMK A01 T02590184  RH  063%=      5-min Rain = 0
KTA1 111440Z 17014KT 26/19 A3015 RMK A01 T02600185  RH  063%=      5-min Rain = 0
KTA1 111441Z 16012KT 26/19 A3015 RMK A01 T02600185  RH  063%=      5-min Rain = 0
KTA1 111442Z 16014KT 26/19 A3015 RMK A01 T02600185  RH  064%=      5-min Rain = 0
KTA1 111443Z 17013KT 26/19 A3015 RMK A01 T02600185  RH  063%=      5-min Rain = 0
KTA1 111444Z 17013KT 26/19 A3015 RMK A01 T02600185  RH  063%=      5-min Rain = 0
KTA1 111445Z 18011KT 26/19 A3015 RMK A01 T02600185  RH  063%=      5-min Rain = 0
KTA1 111446Z 17011KT 26/19 A3015 RMK A01 T02610186  RH  063%=      5-min Rain = 0
KTA1 111447Z 18013KT 26/19 A3015 RMK A01 T02630185  RH  062%=      5-min Rain = 0
KTA1 111448Z 17013KT 26/19 A3015 RMK A01 T02630185  RH  062%=      5-min Rain = 0
KTA1 111449Z 17013KT 26/19 A3015 RMK A01 T02630185  RH  062%=      5-min Rain = 0
KTA1 111450Z 16012KT 26/19 A3015 RMK A01 T02620185  RH  062%=      5-min Rain = 0
KTA1 111451Z 17013KT 26/19 A3016 RMK A01 T02620185  RH  062%=      5-min Rain = 0
KTA1 111452Z 16013KT 26/19 A3016 RMK A01 T02640186  RH  062%=      5-min Rain = 0
KTA1 111453Z 17014KT 27/19 A3016 RMK A01 T02650185  RH  062%=      5-min Rain = 0
KTA1 111454Z 17015KT 26/19 A3016 RMK A01 T02640185  RH  062%=      5-min Rain = 0
KTA1 111455Z 17009KT 26/19 A3016 RMK A01 T02640186  RH  062%=      5-min Rain = 0
KTA1 111456Z 17010G17KT 27/19 A3016 RMK A01 T02660188  RH  062%=      5-min Rain = 0
KTA1 111457Z 17015KT 27/19 A3016 RMK A01 T02670185  RH  061%=      5-min Rain = 0
KTA1 111458Z 18014KT 27/19 A3016 RMK A01 T02660185  RH  061%=      5-min Rain = 0
KTA1 111459Z 18012KT 27/18 A3015 RMK A01 T02650184  RH  061%=      5-min Rain = 0
KTA1 111500Z 17009KT 27/19 A3015 RMK A01 T02650186  RH  062%=      5-min Rain = 0
KTA1 111501Z 17013KT 27/19 A3015 RMK A01 T02680188  RH  061%=      5-min Rain = 0
KTA1 111502Z 17013KT 27/19 A3015 RMK A01 T02690186  RH  060%=      5-min Rain = 0
KTA1 111503Z 17013KT 27/18 A3015 RMK A01 T02690184  RH  060%=      5-min Rain = 0
KTA1 111504Z 17012KT 27/19 A3015 RMK A01 T02670185  RH  061%=      5-min Rain = 0
KTA1 111505Z 17014KT 27/18 A3015 RMK A01 T02680184  RH  060%=      5-min Rain = 0
KTA1 111506Z 16011KT 27/19 A3015 RMK A01 T02680185  RH  060%=      5-min Rain = 0
KTA1 111507Z 18013KT 27/19 A3015 RMK A01 T02680186  RH  061%=      5-min Rain = 0
KTA1 111508Z 17013KT 27/18 A3015 RMK A01 T02700184  RH  060%=      5-min Rain = 0
KTA1 111509Z 17012KT 27/19 A3015 RMK A01 T02700185  RH  060%=      5-min Rain = 0
KTA1 111510Z 17011KT 27/19 A3015 RMK A01 T02700186  RH  060%=      5-min Rain = 0
KTA1 111511Z 17011KT 27/19 A3015 RMK A01 T02710187  RH  060%=      5-min Rain = 0
KTA1 111512Z 18012KT 27/19 A3015 RMK A01 T02720185  RH  059%=      5-min Rain = 0
KTA1 111513Z 17011KT 27/19 A3015 RMK A01 T02720186  RH  059%=      5-min Rain = 0
KTA1 111514Z 17014KT 27/19 A3015 RMK A01 T02720186  RH  059%=      5-min Rain = 0
KTA1 111515Z 17012KT 27/19 A3015 RMK A01 T02720185  RH  059%=      5-min Rain = 0
KTA1 111516Z 16013KT 27/19 A3015 RMK A01 T02720185  RH  059%=      5-min Rain = 0
KTA1 111517Z 17015KT 27/19 A3015 RMK A01 T02720185  RH  059%=      5-min Rain = 0
KTA1 111518Z 16014KT 27/19 A3015 RMK A01 T02710185  RH  059%=      5-min Rain = 0
KTA1 111519Z 16012KT 27/19 A3015 RMK A01 T02710185  RH  059%=      5-min Rain = 0
KTA1 111520Z 18012G17KT 27/19 A3015 RMK A01 T02710186  RH  060%=      5-min Rain = 0
KTA1 111521Z 17013G18KT 27/18 A3015 RMK A01 T02730183  RH  058%=      5-min Rain = 0
KTA1 111522Z 17013KT 27/18 A3015 RMK A01 T02730183  RH  058%=      5-min Rain = 0
KTA1 111523Z 17012KT 27/18 A3015 RMK A01 T02730182  RH  058%=      5-min Rain = 0
KTA1 111524Z 17013KT 27/18 A3015 RMK A01 T02720183  RH  058%=      5-min Rain = 0
KTA1 111525Z 17013KT 27/18 A3015 RMK A01 T02730183  RH  058%=      5-min Rain = 0
KTA1 111526Z 17009KT 27/19 A3015 RMK A01 T02730185  RH  058%=      5-min Rain = 0
KTA1 111527Z 18011KT 27/18 A3015 RMK A01 T02740184  RH  058%=      5-min Rain = 0
KTA1 111528Z 17012KT 28/18 A3015 RMK A01 T02750184  RH  058%=      5-min Rain = 0
KTA1 111529Z 16013KT 28/18 A3015 RMK A01 T02750184  RH  057%=      5-min Rain = 0
KTA1 111530Z 16013G18KT 28/18 A3015 RMK A01 T02750184  RH  057%=      5-min Rain = 0
KTA1 111531Z 17012KT 28/18 A3015 RMK A01 T02760184  RH  057%=      5-min Rain = 0
KTA1 111532Z 17013KT 28/18 A3015 RMK A01 T02760183  RH  057%=      5-min Rain = 0
KTA1 111533Z 17014KT 28/18 A3015 RMK A01 T02780180  RH  055%=      5-min Rain = 0
KTA1 111534Z 19012KT 28/18 A3015 RMK A01 T02790180  RH  055%=      5-min Rain = 0
KTA1 111535Z 18012KT 28/18 A3015 RMK A01 T02790181  RH  055%=      5-min Rain = 0
KTA1 111536Z 18012KT 28/18 A3015 RMK A01 T02780182  RH  056%=      5-min Rain = 0
KTA1 111537Z 16012KT 28/18 A3015 RMK A01 T02790184  RH  056%=      5-min Rain = 0
KTA1 111538Z 18011KT 28/19 A3015 RMK A01 T02800185  RH  056%=      5-min Rain = 0
KTA1 111539Z 19014KT 28/18 A3015 RMK A01 T02820184  RH  055%=      5-min Rain = 0
KTA1 111540Z 18015KT 28/18 A3015 RMK A01 T02820184  RH  055%=      5-min Rain = 0
KTA1 111541Z 18013KT 28/18 A3015 RMK A01 T02810182  RH  055%=      5-min Rain = 0
KTA1 111542Z 17011G17KT 28/18 A3014 RMK A01 T02800183  RH  055%=      5-min Rain = 0
KTA1 111543Z 17016KT 28/18 A3015 RMK A01 T02810182  RH  055%=      5-min Rain = 0
KTA1 111544Z 17012KT 28/18 A3015 RMK A01 T02820180  RH  054%=      5-min Rain = 0
KTA1 111545Z 17013KT 28/18 A3015 RMK A01 T02820180  RH  054%=      5-min Rain = 0
KTA1 111546Z 18009KT 28/18 A3015 RMK A01 T02820178  RH  053%=      5-min Rain = 0
KTA1 111547Z 18013KT 28/18 A3015 RMK A01 T02830180  RH  054%=      5-min Rain = 0
KTA1 111548Z 18013KT 28/18 A3015 RMK A01 T02830182  RH  054%=      5-min Rain = 0
KTA1 111549Z 17012KT 28/18 A3015 RMK A01 T02830183  RH  054%=      5-min Rain = 0
KTA1 111550Z 18010KT 28/18 A3015 RMK A01 T02830184  RH  055%=      5-min Rain = 0
KTA1 111551Z 19012KT 28/18 A3015 RMK A01 T02840181  RH  054%=      5-min Rain = 0
KTA1 111552Z 19015KT 29/18 A3015 RMK A01 T02850181  RH  053%=      5-min Rain = 0
KTA1 111553Z 18015KT 29/18 A3015 RMK A01 T02850179  RH  053%=      5-min Rain = 0
KTA1 111554Z 17014KT 28/18 A3015 RMK A01 T02840178  RH  053%=      5-min Rain = 0
KTA1 111555Z 18013KT 28/18 A3015 RMK A01 T02830179  RH  053%=      5-min Rain = 0
KTA1 111556Z 18014KT 28/18 A3015 RMK A01 T02830179  RH  053%=      5-min Rain = 0
KTA1 111557Z 18013KT 28/18 A3015 RMK A01 T02830181  RH  054%=      5-min Rain = 0
KTA1 111558Z 16013KT 28/18 A3015 RMK A01 T02830181  RH  054%=      5-min Rain = 0
KTA1 111559Z 17012KT 28/18 A3015 RMK A01 T02840182  RH  054%=      5-min Rain = 0
KTA1 111600Z 17012KT 29/18 A3015 RMK A01 T02860181  RH  053%=      5-min Rain = 0
KTA1 111601Z 17013KT 29/18 A3015 RMK A01 T02870181  RH  053%=      5-min Rain = 0
KTA1 111602Z 17014KT 29/18 A3015 RMK A01 T02870180  RH  052%=      5-min Rain = 0
KTA1 111603Z 17014KT 29/18 A3014 RMK A01 T02860181  RH  053%=      5-min Rain = 0
KTA1 111604Z 17013KT 29/18 A3014 RMK A01 T02860182  RH  053%=      5-min Rain = 0
KTA1 111605Z 18012KT 29/18 A3014 RMK A01 T02860179  RH  052%=      5-min Rain = 0
KTA1 111606Z 17011KT 29/18 A3014 RMK A01 T02860179  RH  052%=      5-min Rain = 0
KTA1 111607Z 17010KT 29/18 A3014 RMK A01 T02880183  RH  053%=      5-min Rain = 0
KTA1 111608Z 18012KT 29/18 A3014 RMK A01 T02900182  RH  052%=      5-min Rain = 0
KTA1 111609Z 18013KT 29/18 A3014 RMK A01 T02910178  RH  051%=      5-min Rain = 0
KTA1 111610Z 18014KT 29/18 A3014 RMK A01 T02900180  RH  051%=      5-min Rain = 0
KTA1 111611Z 18015KT 29/18 A3014 RMK A01 T02900177  RH  051%=      5-min Rain = 0
KTA1 111612Z 18014KT 29/18 A3014 RMK A01 T02890175  RH  050%=      5-min Rain = 0
KTA1 111613Z 17014KT 29/18 A3014 RMK A01 T02880177  RH  051%=      5-min Rain = 0
KTA1 111614Z 17012KT 29/18 A3014 RMK A01 T02880177  RH  051%=      5-min Rain = 0
KTA1 111615Z 17014KT 29/18 A3014 RMK A01 T02870177  RH  051%=      5-min Rain = 0
KTA1 111616Z 16014KT 29/18 A3014 RMK A01 T02880176  RH  051%=      5-min Rain = 0
KTA1 111617Z 18013KT 29/18 A3014 RMK A01 T02890177  RH  051%=      5-min Rain = 0
KTA1 111618Z 18013KT 29/18 A3014 RMK A01 T02910176  RH  050%=      5-min Rain = 0
KTA1 111619Z 19013KT 29/18 A3014 RMK A01 T02920177  RH  050%=      5-min Rain = 0
KTA1 111620Z 19015KT 29/18 A3014 RMK A01 T02920177  RH  050%=      5-min Rain = 0
KTA1 111621Z 18013KT 29/18 A3014 RMK A01 T02900176  RH  050%=      5-min Rain = 0
KTA1 111622Z 18013KT 29/18 A3014 RMK A01 T02910176  RH  050%=      5-min Rain = 0
KTA1 111623Z 17011KT 29/18 A3014 RMK A01 T02920177  RH  050%=      5-min Rain = 0
KTA1 111624Z 18012G18KT 29/18 A3014 RMK A01 T02940176  RH  049%=      5-min Rain = 0
KTA1 111625Z 18013KT 30/18 A3014 RMK A01 T02960176  RH  048%=      5-min Rain = 0
KTA1 111626Z 18011KT 30/18 A3014 RMK A01 T02960176  RH  049%=      5-min Rain = 0
KTA1 111627Z 17012KT 30/18 A3014 RMK A01 T02960178  RH  049%=      5-min Rain = 0
KTA1 111628Z 18011KT 30/18 A3014 RMK A01 T02960175  RH  048%=      5-min Rain = 0
KTA1 111629Z 18012KT 30/18 A3014 RMK A01 T02970175  RH  048%=      5-min Rain = 0
KTA1 111630Z 18012KT 30/18 A3014 RMK A01 T02970177  RH  048%=      5-min Rain = 0
KTA1 111631Z 17012KT 30/18 A3014 RMK A01 T02970179  RH  049%=      5-min Rain = 0
KTA1 111632Z 17012KT 30/18 A3014 RMK A01 T02970178  RH  049%=      5-min Rain = 0
KTA1 111633Z 16009KT 30/18 A3014 RMK A01 T02960176  RH  049%=      5-min Rain = 0
KTA1 111634Z 16011KT 30/18 A3014 RMK A01 T02950178  RH  049%=      5-min Rain = 0
KTA1 111635Z 16013G19KT 30/18 A3014 RMK A01 T02960180  RH  050%=      5-min Rain = 0
KTA1 111636Z 15012KT 30/18 A3014 RMK A01 T02960180  RH  050%=      5-min Rain = 0
KTA1 111637Z 17012G18KT 30/18 A3014 RMK A01 T02960179  RH  049%=      5-min Rain = 0
KTA1 111638Z 17015KT 30/17 A3014 RMK A01 T02960174  RH  048%=      5-min Rain = 0
KTA1 111639Z 16011KT 30/18 A3014 RMK A01 T02960178  RH  049%=      5-min Rain = 0
KTA1 111640Z 17009KT 30/18 A3014 RMK A01 T02970178  RH  049%=      5-min Rain = 0
KTA1 111641Z 18009KT 30/18 A3014 RMK A01 T02980181  RH  050%=      5-min Rain = 0
KTA1 111642Z 18010KT 30/18 A3014 RMK A01 T03000180  RH  049%=      5-min Rain = 0
KTA1 111643Z 19010G15KT 30/18 A3014 RMK A01 T03020179  RH  048%=      5-min Rain = 0
KTA1 111644Z 19011KT 30/18 A3014 RMK A01 T03030176  RH  046%=      5-min Rain = 0
KTA1 111645Z 17016KT 31/18 A3014 RMK A01 T03060177  RH  046%=      5-min Rain = 0
KTA1 111646Z 19012KT 30/18 A3014 RMK A01 T03040177  RH  046%=      5-min Rain = 0
KTA1 111647Z 18011KT 30/18 A3014 RMK A01 T03030177  RH  047%=      5-min Rain = 0
KTA1 111648Z 17012KT 30/18 A3014 RMK A01 T03020176  RH  047%=      5-min Rain = 0
KTA1 111649Z 17012KT 30/18 A3014 RMK A01 T03010177  RH  047%=      5-min Rain = 0
KTA1 111650Z 18013KT 30/18 A3014 RMK A01 T03010175  RH  047%=      5-min Rain = 0
KTA1 111651Z 19016KT 30/17 A3014 RMK A01 T03010169  RH  045%=      5-min Rain = 0
KTA1 111652Z 19012KT 30/17 A3014 RMK A01 T03000168  RH  045%=      5-min Rain = 0
KTA1 111653Z 19013KT 30/17 A3014 RMK A01 T03000174  RH  047%=      5-min Rain = 0
KTA1 111654Z 19013KT 30/18 A3014 RMK A01 T03010175  RH  047%=      5-min Rain = 0
KTA1 111655Z 19012KT 30/18 A3014 RMK A01 T03000176  RH  047%=      5-min Rain = 0
KTA1 111656Z 19011KT 30/17 A3014 RMK A01 T03020174  RH  046%=      5-min Rain = 0
KTA1 111657Z 18015KT 30/17 A3014 RMK A01 T03040172  RH  045%=      5-min Rain = 0
KTA1 111658Z 17010KT 31/17 A3014 RMK A01 T03060170  RH  044%=      5-min Rain = 0
KTA1 111659Z 17011KT 31/17 A3014 RMK A01 T03050171  RH  045%=      5-min Rain = 0
KTA1 111700Z 18010KT 30/17 A3014 RMK A01 T03040172  RH  045%=      5-min Rain = 0
KTA1 111701Z 19011G17KT 30/18 A3014 RMK A01 T03040176  RH  046%=      5-min Rain = 0
KTA1 111702Z 16014KT 31/17 A3014 RMK A01 T03050171  RH  044%=      5-min Rain = 0
KTA1 111703Z 18011KT 31/17 A3014 RMK A01 T03050170  RH  044%=      5-min Rain = 0
KTA1 111704Z 18010KT 31/17 A3014 RMK A01 T03060169  RH  044%=      5-min Rain = 0
KTA1 111705Z 19007KT 31/17 A3014 RMK A01 T03070171  RH  044%=      5-min Rain = 0
KTA1 111706Z 16009KT 31/17 A3014 RMK A01 T03080174  RH  045%=      5-min Rain = 0
KTA1 111707Z 16009KT 31/18 A3014 RMK A01 T03090177  RH  045%=      5-min Rain = 0
KTA1 111708Z 17013KT 31/18 A3014 RMK A01 T03100175  RH  044%=      5-min Rain = 0
KTA1 111709Z 17011KT 31/17 A3014 RMK A01 T03080173  RH  044%=      5-min Rain = 0
KTA1 111710Z 17010KT 31/17 A3014 RMK A01 T03070173  RH  045%=      5-min Rain = 0
KTA1 111711Z 18009KT 31/17 A3014 RMK A01 T03070173  RH  045%=      5-min Rain = 0
KTA1 111712Z 18011G16KT 31/17 A3014 RMK A01 T03070173  RH  045%=      5-min Rain = 0
KTA1 111713Z 19014KT 31/17 A3014 RMK A01 T03060172  RH  045%=      5-min Rain = 0
KTA1 111714Z 18010KT 31/17 A3014 RMK A01 T03050173  RH  045%=      5-min Rain = 0
KTA1 111715Z 19011KT 31/17 A3014 RMK A01 T03070174  RH  045%=      5-min Rain = 0
KTA1 111716Z 20009KT 31/17 A3014 RMK A01 T03100174  RH  044%=      5-min Rain = 0
KTA1 111717Z 19010KT 31/17 A3014 RMK A01 T03110172  RH  043%=      5-min Rain = 0
KTA1 111718Z 18013KT 31/17 A3014 RMK A01 T03100173  RH  044%=      5-min Rain = 0
KTA1 111719Z 18010KT 31/17 A3014 RMK A01 T03080174  RH  045%=      5-min Rain = 0
KTA1 111720Z 18010G15KT 31/17 A3014 RMK A01 T03090168  RH  043%=      5-min Rain = 0
KTA1 111721Z 17009KT 31/17 A3014 RMK A01 T03100169  RH  043%=      5-min Rain = 0
KTA1 111722Z 15009KT 31/17 A3014 RMK A01 T03130174  RH  044%=      5-min Rain = 0
KTA1 111723Z 15010KT 31/18 A3014 RMK A01 T03130175  RH  044%=      5-min Rain = 0
KTA1 111724Z 17013KT 31/17 A3014 RMK A01 T03110174  RH  044%=      5-min Rain = 0
KTA1 111725Z 18012KT 31/17 A3014 RMK A01 T03100172  RH  044%=      5-min Rain = 0
KTA1 111726Z 19009KT 31/17 A3014 RMK A01 T03110171  RH  043%=      5-min Rain = 0
KTA1 111727Z 19009KT 31/17 A3014 RMK A01 T03110171  RH  043%=      5-min Rain = 0
KTA1 111728Z 17009KT 31/17 A3014 RMK A01 T03120171  RH  043%=      5-min Rain = 0
KTA1 111729Z 17010KT 31/17 A3014 RMK A01 T03140170  RH  042%=      5-min Rain = 0
KTA1 111730Z 19010KT 31/17 A3014 RMK A01 T03130167  RH  041%=      5-min Rain = 0
KTA1 111731Z 19009KT 31/17 A3014 RMK A01 T03110167  RH  042%=      5-min Rain = 0
KTA1 111732Z 17012KT 31/17 A3014 RMK A01 T03090167  RH  043%=      5-min Rain = 0
KTA1 111733Z 19010KT 31/17 A3014 RMK A01 T03100166  RH  042%=      5-min Rain = 0
KTA1 111734Z 20009KT 31/17 A3014 RMK A01 T03100166  RH  042%=      5-min Rain = 0
KTA1 111735Z 18010KT 31/17 A3014 RMK A01 T03100168  RH  043%=      5-min Rain = 0
KTA1 111736Z 18009KT 31/17 A3013 RMK A01 T03110170  RH  043%=      5-min Rain = 0
KTA1 111737Z 17012KT 31/17 A3013 RMK A01 T03140170  RH  042%=      5-min Rain = 0
KTA1 111738Z 16014KT 31/17 A3014 RMK A01 T03140169  RH  042%=      5-min Rain = 0
KTA1 111739Z 15011KT 31/17 A3014 RMK A01 T03120169  RH  042%=      5-min Rain = 0
KTA1 111740Z 15011KT 31/17 A3013 RMK A01 T03110171  RH  043%=      5-min Rain = 0
KTA1 111741Z 15007KT 31/17 A3013 RMK A01 T03140173  RH  043%=      5-min Rain = 0
KTA1 111742Z 18009KT 32/17 A3013 RMK A01 T03170174  RH  042%=      5-min Rain = 0
KTA1 111743Z 18012KT 32/17 A3013 RMK A01 T03200169  RH  040%=      5-min Rain = 0
KTA1 111744Z 19011KT 32/17 A3013 RMK A01 T03190169  RH  041%=      5-min Rain = 0
KTA1 111745Z 17008KT 32/17 A3013 RMK A01 T03160168  RH  041%=      5-min Rain = 0
KTA1 111746Z 18007KT 31/17 A3013 RMK A01 T03140167  RH  041%=      5-min Rain = 0
KTA1 111747Z 19010KT 31/17 A3013 RMK A01 T03140170  RH  042%=      5-min Rain = 0
KTA1 111748Z 18009KT 32/17 A3013 RMK A01 T03170168  RH  041%=      5-min Rain = 0
KTA1 111749Z 18012KT 32/17 A3013 RMK A01 T03150166  RH  041%=      5-min Rain = 0
KTA1 111750Z 18014KT 32/17 A3013 RMK A01 T03160166  RH  041%=      5-min Rain = 0
KTA1 111751Z 18008KT 32/17 A3013 RMK A01 T03160167  RH  041%=      5-min Rain = 0
KTA1 111752Z 18013KT 32/17 A3013 RMK A01 T03180167  RH  040%=      5-min Rain = 0
KTA1 111753Z 18011KT 32/16 A3013 RMK A01 T03170163  RH  040%=      5-min Rain = 0
KTA1 111754Z 18007KT 31/16 A3013 RMK A01 T03130160  RH  040%=      5-min Rain = 0
KTA1 111755Z 17006KT 31/16 A3013 RMK A01 T03120161  RH  040%=      5-min Rain = 0
KTA1 111756Z 15011KT 31/16 A3013 RMK A01 T03130163  RH  040%=      5-min Rain = 0
KTA1 111757Z 15012KT 32/16 A3013 RMK A01 T03150158  RH  039%=      5-min Rain = 0
KTA1 111758Z 15010KT 32/16 A3013 RMK A01 T03160156  RH  038%=      5-min Rain = 0
KTA1 111759Z 15013KT 32/16 A3013 RMK A01 T03160157  RH  038%=      5-min Rain = 0
KTA1 111800Z 16009KT 32/16 A3013 RMK A01 T03180162  RH  039%=      5-min Rain = 0
KTA1 111801Z 17011G16KT 32/17 A3013 RMK A01 T03200166  RH  040%=      5-min Rain = 0
KTA1 111802Z 18009KT 32/17 A3013 RMK A01 T03230165  RH  039%=      5-min Rain = 0
KTA1 111803Z 17007KT 33/16 A3013 RMK A01 T03250164  RH  038%=      5-min Rain = 0
KTA1 111804Z 16006KT 32/17 A3013 RMK A01 T03220166  RH  039%=      5-min Rain = 0
KTA1 111805Z 17010KT 32/16 A3013 RMK A01 T03220163  RH  039%=      5-min Rain = 0
KTA1 111806Z 15008KT 32/16 A3013 RMK A01 T03190160  RH  038%=      5-min Rain = 0
KTA1 111807Z 15011G17KT 32/16 A3012 RMK A01 T03170163  RH  040%=      5-min Rain = 0
KTA1 111808Z 14015KT 32/16 A3012 RMK A01 T03170159  RH  039%=      5-min Rain = 0
KTA1 111809Z 13017KT 32/16 A3012 RMK A01 T03200157  RH  038%=      5-min Rain = 0
KTA1 111810Z 14016KT 32/16 A3012 RMK A01 T03210157  RH  037%=      5-min Rain = 0
KTA1 111811Z 14014G20KT 32/16 A3012 RMK A01 T03210156  RH  037%=      5-min Rain = 0
KTA1 111812Z 15011KT 32/16 A3012 RMK A01 T03200158  RH  038%=      5-min Rain = 0
KTA1 111813Z 17011KT 32/16 A3012 RMK A01 T03220161  RH  038%=      5-min Rain = 0
KTA1 111814Z 16009KT 32/16 A3012 RMK A01 T03230162  RH  038%=      5-min Rain = 0
KTA1 111815Z 15010G15KT 32/16 A3012 RMK A01 T03220163  RH  038%=      5-min Rain = 0
KTA1 111816Z 16010KT 32/17 A3012 RMK A01 T03220166  RH  039%=      5-min Rain = 0
KTA1 111817Z 15011KT 32/16 A3012 RMK A01 T03230164  RH  038%=      5-min Rain = 0
KTA1 111818Z 17012KT 32/16 A3012 RMK A01 T03240164  RH  038%=      5-min Rain = 0
KTA1 111819Z 17014KT 32/16 A3012 RMK A01 T03240161  RH  038%=      5-min Rain = 0
KTA1 111820Z 17014KT 32/16 A3012 RMK A01 T03230156  RH  037%=      5-min Rain = 0
KTA1 111821Z 17016KT 32/16 A3011 RMK A01 T03240155  RH  036%=      5-min Rain = 0
KTA1 111822Z 16016KT 32/15 A3012 RMK A01 T03230154  RH  036%=      5-min Rain = 0
KTA1 111823Z 16012KT 32/16 A3012 RMK A01 T03210155  RH  037%=      5-min Rain = 0
KTA1 111824Z 15011KT 32/16 A3012 RMK A01 T03200158  RH  038%=      5-min Rain = 0
KTA1 111825Z 15010KT 32/16 A3012 RMK A01 T03210158  RH  037%=      5-min Rain = 0
KTA1 111826Z 15006KT 32/16 A3011 RMK A01 T03210158  RH  038%=      5-min Rain = 0
KTA1 111827Z 15011G20KT 32/16 A3011 RMK A01 T03200162  RH  039%=      5-min Rain = 0
KTA1 111828Z 15015G20KT 32/15 A3011 RMK A01 T03210151  RH  036%=      5-min Rain = 0
KTA1 111829Z 14014KT 32/15 A3011 RMK A01 T03220154  RH  036%=      5-min Rain = 0
KTA1 111830Z 14012KT 32/16 A3011 RMK A01 T03240158  RH  037%=      5-min Rain = 0
KTA1 111831Z 14010KT 33/16 A3011 RMK A01 T03260161  RH  037%=      5-min Rain = 0
KTA1 111832Z 16010KT 33/16 A3011 RMK A01 T03280163  RH  037%=      5-min Rain = 0
KTA1 111833Z 17009KT 33/16 A3011 RMK A01 T03290162  RH  037%=      5-min Rain = 0
KTA1 111834Z 17010KT 33/16 A3011 RMK A01 T03290159  RH  036%=      5-min Rain = 0
KTA1 111835Z 18013G18KT 33/15 A3011 RMK A01 T03280154  RH  035%=      5-min Rain = 0
KTA1 111836Z 18017KT 33/15 A3011 RMK A01 T03270146  RH  034%=      5-min Rain = 0
KTA1 111837Z 18014KT 32/15 A3011 RMK A01 T03240147  RH  034%=      5-min Rain = 0
KTA1 111838Z 16012KT 32/15 A3011 RMK A01 T03230153  RH  036%=      5-min Rain = 0
KTA1 111839Z 16013KT 33/16 A3011 RMK A01 T03260157  RH  036%=      5-min Rain = 0
KTA1 111840Z 17018KT 33/15 A3011 RMK A01 T03270154  RH  035%=      5-min Rain = 0
KTA1 111841Z 18015KT 33/15 A3011 RMK A01 T03250150  RH  035%=      5-min Rain = 0
KTA1 111842Z 17015KT 32/15 A3011 RMK A01 T03230154  RH  036%=      5-min Rain = 0
KTA1 111843Z 16016KT 32/16 A3011 RMK A01 T03230155  RH  036%=      5-min Rain = 0
KTA1 111844Z 16014KT 32/15 A3011 RMK A01 T03220154  RH  036%=      5-min Rain = 0
KTA1 111845Z 14015KT 32/15 A3011 RMK A01 T03210154  RH  036%=      5-min Rain = 0
KTA1 111846Z 14014G19KT 32/15 A3011 RMK A01 T03220150  RH  035%=      5-min Rain = 0
KTA1 111847Z 14014KT 32/16 A301 RMK A01 T03230155  RH  036%=      5-min Rain = 0
KTA1 111848Z 16015KT 33/16 A301 RMK A01 T03250156  RH  036%=      5-min Rain = 0
KTA1 111849Z 17013G18KT 33/15 A301 RMK A01 T03250154  RH  036%=      5-min Rain = 0
KTA1 111850Z 17013KT 33/16 A301 RMK A01 T03270156  RH  036%=      5-min Rain = 0
KTA1 111851Z 18012KT 33/16 A3011 RMK A01 T03290158  RH  036%=      5-min Rain = 0
KTA1 111852Z 18011KT 33/16 A301 RMK A01 T03300157  RH  035%=      5-min Rain = 0
KTA1 111853Z 19011G16KT 33/16 A301 RMK A01 T03290158  RH  036%=      5-min Rain = 0
KTA1 111854Z 19010KT 33/16 A301 RMK A01 T03300158  RH  036%=      5-min Rain = 0
KTA1 111855Z 18011KT 33/16 A301 RMK A01 T03310155  RH  035%=      5-min Rain = 0
KTA1 111856Z 16014KT 33/16 A301 RMK A01 T03300159  RH  036%=      5-min Rain = 0
KTA1 111857Z 15017KT 33/16 A301 RMK A01 T03300164  RH  037%=      5-min Rain = 0
KTA1 111858Z 14015KT 33/16 A301 RMK A01 T03300162  RH  036%=      5-min Rain = 0
KTA1 111859Z 16008KT 33/16 A301 RMK A01 T03300163  RH  037%=      5-min Rain = 0
KTA1 111900Z 18012KT 33/16 A301 RMK A01 T03320159  RH  035%=      5-min Rain = 0
KTA1 111901Z 16013G18KT 33/16 A301 RMK A01 T03340159  RH  035%=      5-min Rain = 0
KTA1 111902Z 17014KT 34/16 A301 RMK A01 T03360160  RH  035%=      5-min Rain = 0
KTA1 111903Z 18014KT 33/16 A301 RMK A01 T03340156  RH  034%=      5-min Rain = 0
KTA1 111904Z 17010KT 33/16 A301 RMK A01 T03320156  RH  035%=      5-min Rain = 0
KTA1 111905Z 16010KT 33/16 A301 RMK A01 T03330158  RH  035%=      5-min Rain = 0
KTA1 111906Z 14013KT 34/16 A301 RMK A01 T03350160  RH  035%=      5-min Rain = 0
KTA1 111907Z 15012G17KT 34/16 A301 RMK A01 T03370161  RH  035%=      5-min Rain = 0
KTA1 111908Z 15013G20KT 34/16 A301 RMK A01 T03390160  RH  034%=      5-min Rain = 0
KTA1 111909Z 16014KT 34/16 A301 RMK A01 T03390160  RH  034%=      5-min Rain = 0
KTA1 111910Z 15018KT 34/16 A301 RMK A01 T03370157  RH  034%=      5-min Rain = 0
KTA1 111911Z 16016KT 33/16 A301 RMK A01 T03320156  RH  035%=      5-min Rain = 0
KTA1 111912Z 15016KT 33/15 A301 RMK A01 T03300154  RH  035%=      5-min Rain = 0
KTA1 111913Z 16012KT 33/15 A301 RMK A01 T03290151  RH  034%=      5-min Rain = 0
KTA1 111914Z 16010KT 33/15 A301 RMK A01 T03300153  RH  034%=      5-min Rain = 0
KTA1 111915Z 16008KT 33/15 A301 RMK A01 T03310154  RH  035%=      5-min Rain = 0
KTA1 111916Z 15011KT 33/16 A301 RMK A01 T03320156  RH  035%=      5-min Rain = 0
KTA1 111917Z 17011G17KT 33/15 A3009 RMK A01 T03330154  RH  034%=      5-min Rain = 0
KTA1 111918Z 15012KT 34/15 A3009 RMK A01 T03350153  RH  034%=      5-min Rain = 0
KTA1 111919Z 15013KT 34/15 A3009 RMK A01 T03350153  RH  034%=      5-min Rain = 0
KTA1 111920Z 15014KT 33/15 A3009 RMK A01 T03330153  RH  034%=      5-min Rain = 0
KTA1 111921Z 18013KT 33/15 A3009 RMK A01 T03340151  RH  033%=      5-min Rain = 0
KTA1 111922Z 18016KT 33/15 A3009 RMK A01 T03340151  RH  033%=      5-min Rain = 0
KTA1 111923Z 19014KT 33/15 A3009 RMK A01 T03320151  RH  034%=      5-min Rain = 0
KTA1 111924Z 18016G21KT 34/15 A3009 RMK A01 T03350153  RH  034%=      5-min Rain = 0
KTA1 111925Z 18017KT 34/15 A3009 RMK A01 T03350151  RH  033%=      5-min Rain = 0
KTA1 111926Z 16011KT 33/16 A3009 RMK A01 T03330155  RH  034%=      5-min Rain = 0
KTA1 111927Z 17011KT 33/16 A3009 RMK A01 T03340157  RH  034%=      5-min Rain = 0
KTA1 111928Z 16013G21KT 34/16 A3009 RMK A01 T03380158  RH  034%=      5-min Rain = 0
KTA1 111929Z 15017KT 34/16 A3009 RMK A01 T03390156  RH  033%=      5-min Rain = 0
KTA1 111930Z 15013KT 33/16 A3009 RMK A01 T03340155  RH  034%=      5-min Rain = 0
KTA1 111931Z 15013KT 33/16 A3009 RMK A01 T03310156  RH  035%=      5-min Rain = 0
KTA1 111932Z 17015G20KT 33/16 A3009 RMK A01 T03320155  RH  034%=      5-min Rain = 0
KTA1 111933Z 18015KT 34/15 A3008 RMK A01 T03350150  RH  033%=      5-min Rain = 0
KTA1 111934Z 17015KT 34/15 A3009 RMK A01 T03380149  RH  032%=      5-min Rain = 0
KTA1 111935Z 18012KT 34/15 A3008 RMK A01 T03380151  RH  032%=      5-min Rain = 0
KTA1 111936Z 17009KT 34/15 A3008 RMK A01 T03370153  RH  033%=      5-min Rain = 0
KTA1 111937Z 18008KT 34/15 A3008 RMK A01 T03390153  RH  033%=      5-min Rain = 0
KTA1 111938Z 16014KT 34/16 A3008 RMK A01 T03380158  RH  034%=      5-min Rain = 0
KTA1 111939Z 15015G21KT 34/16 A3008 RMK A01 T03370159  RH  034%=      5-min Rain = 0
KTA1 111940Z 15020KT 34/16 A3008 RMK A01 T03360157  RH  034%=      5-min Rain = 0
KTA1 111941Z 15015KT 33/15 A3008 RMK A01 T03330154  RH  034%=      5-min Rain = 0
KTA1 111942Z 15014KT 33/15 A3008 RMK A01 T03320153  RH  034%=      5-min Rain = 0
KTA1 111943Z 15015KT 33/15 A3008 RMK A01 T03330151  RH  033%=      5-min Rain = 0
KTA1 111944Z 16014KT 33/15 A3008 RMK A01 T03340151  RH  033%=      5-min Rain = 0
KTA1 111945Z 17013G19KT 34/16 A3008 RMK A01 T03350157  RH  034%=      5-min Rain = 0
KTA1 111946Z 17012KT 34/16 A3008 RMK A01 T03380155  RH  033%=      5-min Rain = 0
KTA1 111947Z 17013KT 34/15 A3008 RMK A01 T03390153  RH  033%=      5-min Rain = 0
KTA1 111948Z 17011KT 34/16 A3008 RMK A01 T03380155  RH  034%=      5-min Rain = 0
KTA1 111949Z 17013KT 34/16 A3008 RMK A01 T03360157  RH  034%=      5-min Rain = 0
KTA1 111950Z 16013KT 34/16 A3008 RMK A01 T03350160  RH  035%=      5-min Rain = 0
KTA1 111951Z 15012G18KT 33/16 A3008 RMK A01 T03320161  RH  036%=      5-min Rain = 0
KTA1 111952Z 15014KT 33/16 A3008 RMK A01 T03320161  RH  036%=      5-min Rain = 0
KTA1 111953Z 14014KT 33/16 A3008 RMK A01 T03330162  RH  036%=      5-min Rain = 0
KTA1 111954Z 15015KT 33/16 A3007 RMK A01 T03320159  RH  035%=      5-min Rain = 0
KTA1 111955Z 17013KT 33/16 A3008 RMK A01 T03310158  RH  035%=      5-min Rain = 0
KTA1 111956Z 18014KT 33/15 A3008 RMK A01 T03320154  RH  034%=      5-min Rain = 0
KTA1 111957Z 17013KT 33/15 A3007 RMK A01 T03340153  RH  034%=      5-min Rain = 0
KTA1 111958Z 18014G19KT 34/16 A3008 RMK A01 T03350156  RH  034%=      5-min Rain = 0
KTA1 111959Z 17014KT 34/16 A3008 RMK A01 T03380156  RH  034%=      5-min Rain = 0
KTA1 112000Z 17016KT 34/16 A3007 RMK A01 T03380157  RH  034%=      5-min Rain = 0
KTA1 112001Z 17016KT 34/16 A3008 RMK A01 T03380157  RH  034%=      5-min Rain = 0
KTA1 112002Z 17014G19KT 34/16 A3007 RMK A01 T03380158  RH  034%=      5-min Rain = 0
KTA1 112003Z 18011KT 34/16 A3007 RMK A01 T03360157  RH  034%=      5-min Rain = 0
KTA1 112004Z 18009KT 33/16 A3007 RMK A01 T03330158  RH  035%=      5-min Rain = 0
KTA1 112005Z 16012G19KT 33/16 A3007 RMK A01 T03340159  RH  035%=      5-min Rain = 0
KTA1 112006Z 15015KT 34/16 A3007 RMK A01 T03350160  RH  035%=      5-min Rain = 0
KTA1 112007Z 16014KT 33/16 A3007 RMK A01 T03340160  RH  035%=      5-min Rain = 0
KTA1 112008Z 18015KT 33/16 A3007 RMK A01 T03340159  RH  035%=      5-min Rain = 0
KTA1 112009Z 18012KT 34/16 A3007 RMK A01 T03350156  RH  034%=      5-min Rain = 0
KTA1 112010Z 18014KT 34/16 A3007 RMK A01 T03390157  RH  034%=      5-min Rain = 0
KTA1 112011Z 18017KT 34/16 A3007 RMK A01 T03400157  RH  033%=      5-min Rain = 0
KTA1 112012Z 18014G21KT 34/16 A3007 RMK A01 T03400156  RH  033%=      5-min Rain = 0
KTA1 112013Z 18013KT 34/16 A3007 RMK A01 T03380156  RH  034%=      5-min Rain = 0
KTA1 112014Z 17012KT 34/16 A3007 RMK A01 T03370155  RH  034%=      5-min Rain = 0
KTA1 112015Z 17014KT 34/16 A3007 RMK A01 T03360157  RH  034%=      5-min Rain = 0
KTA1 112016Z 15014KT 34/16 A3007 RMK A01 T03370158  RH  034%=      5-min Rain = 0
KTA1 112017Z 15014G19KT 34/16 A3007 RMK A01 T03360157  RH  034%=      5-min Rain = 0
KTA1 112018Z 16014KT 33/16 A3007 RMK A01 T03340157  RH  035%=      5-min Rain = 0
KTA1 112019Z 17014KT 33/16 A3007 RMK A01 T03340156  RH  034%=      5-min Rain = 0
KTA1 112020Z 16013KT 34/15 A3006 RMK A01 T03350154  RH  034%=      5-min Rain = 0
KTA1 112021Z 15015KT 34/16 A3006 RMK A01 T03360155  RH  034%=      5-min Rain = 0
KTA1 112022Z 16015KT 34/16 A3006 RMK A01 T03380156  RH  034%=      5-min Rain = 0
KTA1 112023Z 17014KT 34/16 A3006 RMK A01 T03370158  RH  034%=      5-min Rain = 0
KTA1 112024Z 17011KT 33/16 A3006 RMK A01 T03340155  RH  034%=      5-min Rain = 0
KTA1 112025Z 17012KT 33/16 A3006 RMK A01 T03320156  RH  035%=      5-min Rain = 0
KTA1 112026Z 17010KT 33/16 A3006 RMK A01 T03330155  RH  034%=      5-min Rain = 0
KTA1 112027Z 17011KT 33/16 A3006 RMK A01 T03330155  RH  034%=      5-min Rain = 0
KTA1 112028Z 16013G18KT 34/16 A3006 RMK A01 T03350158  RH  034%=      5-min Rain = 0
KTA1 112029Z 16014KT 34/15 A3006 RMK A01 T03370154  RH  033%=      5-min Rain = 0
KTA1 112030Z 17012KT 34/16 A3006 RMK A01 T03370155  RH  034%=      5-min Rain = 0
KTA1 112031Z 18016KT 34/15 A3006 RMK A01 T03380152  RH  033%=      5-min Rain = 0
KTA1 112032Z 19013KT 34/15 A3006 RMK A01 T03390150  RH  032%=      5-min Rain = 0
KTA1 112033Z 20012KT 34/15 A3005 RMK A01 T03400148  RH  032%=      5-min Rain = 0
KTA1 112034Z 19011KT 34/15 A3005 RMK A01 T03400149  RH  032%=      5-min Rain = 0
KTA1 112035Z 19015G20KT 34/15 A3005 RMK A01 T03400150  RH  032%=      5-min Rain = 0
KTA1 112036Z 18015KT 34/15 A3005 RMK A01 T03420151  RH  032%=      5-min Rain = 0
KTA1 112037Z 19015KT 34/15 A3005 RMK A01 T03420151  RH  032%=      5-min Rain = 0
KTA1 112038Z 20014G20KT 34/15 A3005 RMK A01 T03390147  RH  032%=      5-min Rain = 0
KTA1 112039Z 19015KT 34/15 A3005 RMK A01 T03360148  RH  032%=      5-min Rain = 0
KTA1 112040Z 20013KT 34/15 A3005 RMK A01 T03370148  RH  032%=      5-min Rain = 0
KTA1 112041Z 18016G21KT 34/15 A3005 RMK A01 T03390147  RH  032%=      5-min Rain = 0
KTA1 112042Z 18016KT 34/15 A3005 RMK A01 T03390148  RH  032%=      5-min Rain = 0
KTA1 112043Z 18015KT 34/15 A3005 RMK A01 T03390145  RH  031%=      5-min Rain = 0
KTA1 112044Z 18014G19KT 34/15 A3005 RMK A01 T03390146  RH  031%=      5-min Rain = 0
KTA1 112045Z 18015KT 34/14 A3005 RMK A01 T03400144  RH  031%=      5-min Rain = 0
KTA1 112046Z 18014KT 34/15 A3005 RMK A01 T03390146  RH  031%=      5-min Rain = 0
KTA1 112047Z 18014KT 34/14 A3005 RMK A01 T03410143  RH  030%=      5-min Rain = 0
KTA1 112048Z 17012KT 34/14 A3005 RMK A01 T03390143  RH  031%=      5-min Rain = 0
KTA1 112049Z 19013KT 34/14 A3005 RMK A01 T03380144  RH  031%=      5-min Rain = 0
KTA1 112050Z 20012KT 34/15 A3005 RMK A01 T03380145  RH  031%=      5-min Rain = 0
KTA1 112051Z 19014KT 34/14 A3005 RMK A01 T03380144  RH  031%=      5-min Rain = 0
KTA1 112052Z 18013KT 34/14 A3005 RMK A01 T03400142  RH  030%=      5-min Rain = 0
KTA1 112053Z 19012KT 34/14 A3005 RMK A01 T03410142  RH  030%=      5-min Rain = 0
KTA1 112054Z 18011KT 34/15 A3004 RMK A01 T03400145  RH  031%=      5-min Rain = 0
KTA1 112055Z 18014KT 34/15 A3004 RMK A01 T03390146  RH  031%=      5-min Rain = 0
KTA1 112056Z 17014KT 34/15 A3004 RMK A01 T03410150  RH  032%=      5-min Rain = 0
KTA1 112057Z 17013KT 34/15 A3004 RMK A01 T03430149  RH  031%=      5-min Rain = 0
KTA1 112058Z 16010KT 34/15 A3004 RMK A01 T03420150  RH  032%=      5-min Rain = 0
KTA1 112059Z 15008KT 34/15 A3004 RMK A01 T03400151  RH  032%=      5-min Rain = 0
KTA1 112100Z 18009G14KT 34/15 A3004 RMK A01 T03410153  RH  033%=      5-min Rain = 0
KTA1 112101Z 20012KT 34/15 A3004 RMK A01 T03440150  RH  031%=      5-min Rain = 0
KTA1 112102Z 18015KT 35/14 A3004 RMK A01 T03470143  RH  030%=      5-min Rain = 0
KTA1 112103Z 19014KT 34/14 A3004 RMK A01 T03440141  RH  030%=      5-min Rain = 0
KTA1 112104Z 20013KT 34/15 A3004 RMK A01 T03430147  RH  031%=      5-min Rain = 0
KTA1 112105Z 21012KT 34/15 A3004 RMK A01 T03430146  RH  031%=      5-min Rain = 0
KTA1 112106Z 19012KT 34/15 A3004 RMK A01 T03420146  RH  031%=      5-min Rain = 0
KTA1 112107Z 17014G20KT 34/15 A3004 RMK A01 T03420148  RH  031%=      5-min Rain = 0
KTA1 112108Z 16014KT 34/14 A3004 RMK A01 T03420144  RH  030%=      5-min Rain = 0
KTA1 112109Z 15014KT 34/15 A3004 RMK A01 T03420145  RH  031%=      5-min Rain = 0
KTA1 112110Z 16012KT 34/15 A3004 RMK A01 T03410146  RH  031%=      5-min Rain = 0
KTA1 112111Z 17010KT 34/14 A3004 RMK A01 T03390142  RH  031%=      5-min Rain = 0
KTA1 112112Z 20015KT 34/15 A3003 RMK A01 T03390145  RH  031%=      5-min Rain = 0
KTA1 112113Z 20012KT 34/15 A3003 RMK A01 T03400146  RH  031%=      5-min Rain = 0
KTA1 112114Z 19012KT 34/15 A3003 RMK A01 T03420148  RH  031%=      5-min Rain = 0
KTA1 112115Z 19011KT 34/15 A3003 RMK A01 T03420149  RH  031%=      5-min Rain = 0
KTA1 112116Z 19010KT 34/15 A3003 RMK A01 T03400148  RH  032%=      5-min Rain = 0
KTA1 112117Z 20012G18KT 34/15 A3003 RMK A01 T03410149  RH  032%=      5-min Rain = 0
KTA1 112118Z 21011G17KT 34/15 A3003 RMK A01 T03430146  RH  031%=      5-min Rain = 0
KTA1 112119Z 20014KT 34/15 A3003 RMK A01 T03420147  RH  031%=      5-min Rain = 0
KTA1 112120Z 21013KT 34/15 A3003 RMK A01 T03430145  RH  030%=      5-min Rain = 0
KTA1 112121Z 20010KT 34/14 A3003 RMK A01 T03430143  RH  030%=      5-min Rain = 0
KTA1 112122Z 21012KT 34/14 A3003 RMK A01 T03410143  RH  030%=      5-min Rain = 0
KTA1 112123Z 20014KT 34/14 A3003 RMK A01 T03410144  RH  031%=      5-min Rain = 0
KTA1 112124Z 20018KT 34/15 A3003 RMK A01 T03430145  RH  031%=      5-min Rain = 0
KTA1 112125Z 19014KT 34/15 A3003 RMK A01 T03420145  RH  031%=      5-min Rain = 0
KTA1 112126Z 18015KT 34/14 A3003 RMK A01 T03420143  RH  030%=      5-min Rain = 0
KTA1 112127Z 19013KT 34/14 A3003 RMK A01 T03420142  RH  030%=      5-min Rain = 0
KTA1 112128Z 18013KT 34/14 A3003 RMK A01 T03410142  RH  030%=      5-min Rain = 0
KTA1 112129Z 18015KT 34/14 A3003 RMK A01 T03400142  RH  030%=      5-min Rain = 0
KTA1 112130Z 19017G22KT 34/14 A3003 RMK A01 T03390141  RH  030%=      5-min Rain = 0
KTA1 112131Z 19016G21KT 34/14 A3002 RMK A01 T03390141  RH  030%=      5-min Rain = 0
KTA1 112132Z 20015KT 34/14 A3003 RMK A01 T03400143  RH  031%=      5-min Rain = 0
KTA1 112133Z 20014KT 34/14 A3003 RMK A01 T03410144  RH  031%=      5-min Rain = 0
KTA1 112134Z 20013KT 34/14 A3003 RMK A01 T03410143  RH  030%=      5-min Rain = 0
KTA1 112135Z 19015KT 34/15 A3002 RMK A01 T03420145  RH  031%=      5-min Rain = 0
KTA1 112136Z 20011G17KT 34/14 A3002 RMK A01 T03410144  RH  031%=      5-min Rain = 0
KTA1 112137Z 20015KT 34/15 A3002 RMK A01 T03410145  RH  031%=      5-min Rain = 0
KTA1 112138Z 20014KT 34/14 A3002 RMK A01 T03420144  RH  030%=      5-min Rain = 0
KTA1 112139Z 18012G17KT 34/14 A3002 RMK A01 T03400144  RH  031%=      5-min Rain = 0
KTA1 112140Z 18015G21KT 34/15 A3002 RMK A01 T03430145  RH  030%=      5-min Rain = 0
KTA1 112141Z 18018KT 35/14 A3002 RMK A01 T03450143  RH  030%=      5-min Rain = 0
KTA1 112142Z 19015KT 34/14 A3002 RMK A01 T03430144  RH  030%=      5-min Rain = 0
KTA1 112143Z 19016G21KT 34/15 A3002 RMK A01 T03440145  RH  030%=      5-min Rain = 0
KTA1 112144Z 18017KT 35/15 A3002 RMK A01 T03450145  RH  030%=      5-min Rain = 0
KTA1 112145Z 17016KT 35/14 A3002 RMK A01 T03450143  RH  030%=      5-min Rain = 0
KTA1 112146Z 18015KT 34/14 A3002 RMK A01 T03430143  RH  030%=      5-min Rain = 0
KTA1 112147Z 18012KT 34/15 A3002 RMK A01 T03410145  RH  031%=      5-min Rain = 0
KTA1 112148Z 18011KT 34/14 A3002 RMK A01 T03430144  RH  030%=      5-min Rain = 0
KTA1 112149Z 15010KT 34/15 A3002 RMK A01 T03430148  RH  031%=      5-min Rain = 0
KTA1 112150Z 16009KT 34/15 A3002 RMK A01 T03440147  RH  031%=      5-min Rain = 0
KTA1 112151Z 17009G14KT 34/15 A3002 RMK A01 T03440146  RH  031%=      5-min Rain = 0
KTA1 112152Z 16015KT 34/15 A3002 RMK A01 T03430149  RH  031%=      5-min Rain = 0
KTA1 112153Z 17014G20KT 34/15 A3002 RMK A01 T03440148  RH  031%=      5-min Rain = 0
KTA1 112154Z 18011G16KT 35/15 A3002 RMK A01 T03460147  RH  030%=      5-min Rain = 0
KTA1 112155Z 17010G15KT 35/15 A3002 RMK A01 T03480150  RH  031%=      5-min Rain = 0
KTA1 112156Z 17015KT 35/15 A3002 RMK A01 T03500148  RH  030%=      5-min Rain = 0
KTA1 112157Z 17012KT 35/15 A3002 RMK A01 T03470146  RH  030%=      5-min Rain = 0
KTA1 112158Z 18013KT 35/15 A3002 RMK A01 T03450146  RH  030%=      5-min Rain = 0
KTA1 112159Z 19010KT 34/15 A3002 RMK A01 T03440146  RH  031%=      5-min Rain = 0
KTA1 112200Z 20010KT 34/15 A3002 RMK A01 T03440146  RH  031%=      5-min Rain = 0
KTA1 112201Z 21013KT 35/14 A3001 RMK A01 T03450144  RH  030%=      5-min Rain = 0
KTA1 112202Z 21013KT 35/14 A3002 RMK A01 T03450144  RH  030%=      5-min Rain = 0
KTA1 112203Z 20011KT 34/14 A3002 RMK A01 T03440144  RH  030%=      5-min Rain = 0
KTA1 112204Z 19013G19KT 35/15 A3002 RMK A01 T03460146  RH  030%=      5-min Rain = 0
KTA1 112205Z 18016KT 35/15 A3002 RMK A01 T03480146  RH  030%=      5-min Rain = 0
KTA1 112206Z 18012G17KT 35/15 A3002 RMK A01 T03480146  RH  030%=      5-min Rain = 0
KTA1 112207Z 17011KT 35/15 A3002 RMK A01 T03490147  RH  030%=      5-min Rain = 0
KTA1 112208Z 18014KT 35/14 A3001 RMK A01 T03500144  RH  029%=      5-min Rain = 0
KTA1 112209Z 19012G17KT 35/14 A3001 RMK A01 T03470142  RH  029%=      5-min Rain = 0
KTA1 112210Z 17012G20KT 35/14 A3001 RMK A01 T03450144  RH  030%=      5-min Rain = 0
KTA1 112211Z 17015KT 35/15 A3001 RMK A01 T03460146  RH  030%=      5-min Rain = 0
KTA1 112212Z 16012KT 35/15 A3001 RMK A01 T03460147  RH  030%=      5-min Rain = 0
KTA1 112213Z 17011KT 35/15 A3001 RMK A01 T03460147  RH  030%=      5-min Rain = 0
KTA1 112214Z 17013KT 35/15 A3001 RMK A01 T03460147  RH  030%=      5-min Rain = 0
KTA1 112215Z 17012KT 35/15 A3001 RMK A01 T03460145  RH  030%=      5-min Rain = 0
KTA1 112216Z 17014KT 35/15 A3001 RMK A01 T03450145  RH  030%=      5-min Rain = 0
KTA1 112217Z 19012KT 35/14 A3001 RMK A01 T03450144  RH  030%=      5-min Rain = 0
KTA1 112218Z 19013KT 34/15 A3001 RMK A01 T03440147  RH  031%=      5-min Rain = 0
KTA1 112219Z 16011G16KT 35/15 A3001 RMK A01 T03460148  RH  030%=      5-min Rain = 0
KTA1 112220Z 17013KT 35/15 A3001 RMK A01 T03460148  RH  031%=      5-min Rain = 0
KTA1 112221Z 19012KT 35/15 A3001 RMK A01 T03450148  RH  031%=      5-min Rain = 0
KTA1 112222Z 19012KT 35/15 A3001 RMK A01 T03450147  RH  031%=      5-min Rain = 0
KTA1 112223Z 18011KT 34/15 A3001 RMK A01 T03430146  RH  031%=      5-min Rain = 0
KTA1 112224Z 20011KT 34/15 A3001 RMK A01 T03430146  RH  031%=      5-min Rain = 0
KTA1 112225Z 20013KT 34/14 A3001 RMK A01 T03430144  RH  030%=      5-min Rain = 0
KTA1 112226Z 17012KT 34/15 A3001 RMK A01 T03440147  RH  031%=      5-min Rain = 0
KTA1 112227Z 18013KT 35/15 A3001 RMK A01 T03460149  RH  031%=      5-min Rain = 0
KTA1 112228Z 19014KT 35/15 A3001 RMK A01 T03480149  RH  030%=      5-min Rain = 0
KTA1 112229Z 21013KT 35/15 A3001 RMK A01 T03480149  RH  030%=      5-min Rain = 0
KTA1 112230Z 19013KT 35/15 A3001 RMK A01 T03460147  RH  030%=      5-min Rain = 0
KTA1 112231Z 18011KT 34/15 A3001 RMK A01 T03430147  RH  031%=      5-min Rain = 0
KTA1 112232Z 16013KT 34/15 A3001 RMK A01 T03390147  RH  031%=      5-min Rain = 0
KTA1 112233Z 17011KT 34/15 A3001 RMK A01 T03380146  RH  032%=      5-min Rain = 0
KTA1 112234Z 17010KT 34/15 A3001 RMK A01 T03370147  RH  032%=      5-min Rain = 0
KTA1 112235Z 17016KT 34/15 A3001 RMK A01 T03390148  RH  032%=      5-min Rain = 0
KTA1 112236Z 17015KT 34/15 A3001 RMK A01 T03400146  RH  031%=      5-min Rain = 0
KTA1 112237Z 18012KT 34/15 A3001 RMK A01 T03420146  RH  031%=      5-min Rain = 0
KTA1 112238Z 17010KT 34/15 A3001 RMK A01 T03420147  RH  031%=      5-min Rain = 0
KTA1 112239Z 17010KT 34/15 A3001 RMK A01 T03430146  RH  031%=      5-min Rain = 0
KTA1 112240Z 18011KT 34/15 A3001 RMK A01 T03420146  RH  031%=      5-min Rain = 0
KTA1 112241Z 17012KT 34/15 A3001 RMK A01 T03410146  RH  031%=      5-min Rain = 0
KTA1 112242Z 17016KT 34/15 A3001 RMK A01 T03390146  RH  031%=      5-min Rain = 0
KTA1 112243Z 17016KT 34/14 A3001 RMK A01 T03360144  RH  031%=      5-min Rain = 0
KTA1 112244Z 17012KT 34/14 A3001 RMK A01 T03350144  RH  032%=      5-min Rain = 0
KTA1 112245Z 18011KT 34/14 A3001 RMK A01 T03360144  RH  032%=      5-min Rain = 0
KTA1 112246Z 18010KT 34/14 A3001 RMK A01 T03360144  RH  032%=      5-min Rain = 0
KTA1 112247Z 18009KT 34/15 A3001 RMK A01 T03350145  RH  032%=      5-min Rain = 0
KTA1 112248Z 18010KT 34/15 A3001 RMK A01 T03350146  RH  032%=      5-min Rain = 0
KTA1 112249Z 18013KT 34/14 A3001 RMK A01 T03360144  RH  032%=      5-min Rain = 0
KTA1 112250Z 18012KT 34/15 A3001 RMK A01 T03360145  RH  032%=      5-min Rain = 0
KTA1 112251Z 18011KT 34/15 A3001 RMK A01 T03360145  RH  032%=      5-min Rain = 0
KTA1 112252Z 17012KT 34/15 A3001 RMK A01 T03370146  RH  032%=      5-min Rain = 0
KTA1 112253Z 18012KT 34/14 A3001 RMK A01 T03380144  RH  031%=      5-min Rain = 0
KTA1 112254Z 17010KT 34/15 A3001 RMK A01 T03380145  RH  031%=      5-min Rain = 0
KTA1 112255Z 18013KT 34/14 A3001 RMK A01 T03390143  RH  031%=      5-min Rain = 0
KTA1 112256Z 18015KT 34/14 A3001 RMK A01 T03390142  RH  031%=      5-min Rain = 0
KTA1 112257Z 19012KT 34/14 A3001 RMK A01 T03390144  RH  031%=      5-min Rain = 0
KTA1 112258Z 19011KT 34/15 A3001 RMK A01 T03400146  RH  031%=      5-min Rain = 0
KTA1 112259Z 20011KT 34/15 A3001 RMK A01 T03410146  RH  031%=      5-min Rain = 0
KTA1 112300Z 20013KT 34/15 A3001 RMK A01 T03410146  RH  031%=      5-min Rain = 0
KTA1 112301Z 19012KT 34/15 A3001 RMK A01 T03420147  RH  031%=      5-min Rain = 0
KTA1 112302Z 20010KT 34/15 A3001 RMK A01 T03410148  RH  031%=      5-min Rain = 0
KTA1 112303Z 20011KT 34/15 A3001 RMK A01 T03430148  RH  031%=      5-min Rain = 0
KTA1 112304Z 20015KT 34/15 A3001 RMK A01 T03430146  RH  031%=      5-min Rain = 0
KTA1 112305Z 19013KT 34/15 A3001 RMK A01 T03420147  RH  031%=      5-min Rain = 0
KTA1 112306Z 20012KT 34/15 A3001 RMK A01 T03410147  RH  031%=      5-min Rain = 0
KTA1 112307Z 19011KT 34/15 A3001 RMK A01 T03410147  RH  031%=      5-min Rain = 0
KTA1 112308Z 18011KT 34/15 A3001 RMK A01 T03410146  RH  031%=      5-min Rain = 0
KTA1 112309Z 20011KT 34/15 A3001 RMK A01 T03410145  RH  031%=      5-min Rain = 0
KTA1 112310Z 19011KT 34/15 A3001 RMK A01 T03400145  RH  031%=      5-min Rain = 0
KTA1 112311Z 20011G18KT 34/15 A3001 RMK A01 T03400146  RH  031%=      5-min Rain = 0
KTA1 112312Z 19014G19KT 34/15 A3001 RMK A01 T03410145  RH  031%=      5-min Rain = 0
KTA1 112313Z 20012KT 34/15 A3001 RMK A01 T03400145  RH  031%=      5-min Rain = 0
KTA1 112314Z 19012KT 34/15 A3001 RMK A01 T03400146  RH  031%=      5-min Rain = 0
KTA1 112315Z 20013KT 34/15 A3001 RMK A01 T03410145  RH  031%=      5-min Rain = 0
KTA1 112316Z 17009KT 34/15 A3001 RMK A01 T03410147  RH  031%=      5-min Rain = 0
KTA1 112317Z 16010KT 34/15 A3001 RMK A01 T03430150  RH  031%=      5-min Rain = 0
KTA1 112318Z 16011KT 35/15 A3001 RMK A01 T03450149  RH  031%=      5-min Rain = 0
KTA1 112319Z 17011KT 35/15 A3001 RMK A01 T03450150  RH  031%=      5-min Rain = 0
KTA1 112320Z 19012KT 35/15 A3001 RMK A01 T03460149  RH  031%=      5-min Rain = 0
KTA1 112321Z 19012KT 35/15 A3001 RMK A01 T03460148  RH  031%=      5-min Rain = 0
KTA1 112322Z 19011KT 34/15 A3001 RMK A01 T03440148  RH  031%=      5-min Rain = 0
KTA1 112323Z 19011KT 34/15 A3001 RMK A01 T03440147  RH  031%=      5-min Rain = 0
KTA1 112324Z 19011KT 34/15 A3001 RMK A01 T03420147  RH  031%=      5-min Rain = 0
KTA1 112325Z 19009G14KT 34/15 A30 RMK A01 T03420147  RH  031%=      5-min Rain = 0
KTA1 112326Z 18011KT 34/15 A30 RMK A01 T03420147  RH  031%=      5-min Rain = 0
KTA1 112327Z 20013KT 34/15 A30 RMK A01 T03430146  RH  031%=      5-min Rain = 0
KTA1 112328Z 18013KT 34/14 A30 RMK A01 T03410143  RH  030%=      5-min Rain = 0
KTA1 112329Z 18009KT 34/14 A30 RMK A01 T03390142  RH  031%=      5-min Rain = 0
KTA1 112330Z 20009KT 34/14 A30 RMK A01 T03390144  RH  031%=      5-min Rain = 0
KTA1 112331Z 18009KT 34/14 A30 RMK A01 T03400142  RH  030%=      5-min Rain = 0
KTA1 112332Z 17010G16KT 34/14 A30 RMK A01 T03410144  RH  031%=      5-min Rain = 0
KTA1 112333Z 19013KT 34/14 A30 RMK A01 T03420142  RH  030%=      5-min Rain = 0
KTA1 112334Z 20012KT 34/14 A30 RMK A01 T03420143  RH  030%=      5-min Rain = 0
KTA1 112335Z 19011KT 34/14 A30 RMK A01 T03410143  RH  030%=      5-min Rain = 0
KTA1 112336Z 18012KT 34/15 A30 RMK A01 T03410145  RH  031%=      5-min Rain = 0
KTA1 112337Z 18013KT 34/15 A30 RMK A01 T03410145  RH  031%=      5-min Rain = 0
KTA1 112338Z 18010KT 34/15 A30 RMK A01 T03420146  RH  031%=      5-min Rain = 0
KTA1 112339Z 18012KT 34/15 A30 RMK A01 T03420146  RH  031%=      5-min Rain = 0
KTA1 112340Z 16011KT 34/15 A30 RMK A01 T03420147  RH  031%=      5-min Rain = 0
KTA1 112341Z 17010KT 34/15 A30 RMK A01 T03430149  RH  031%=      5-min Rain = 0
KTA1 112342Z 17010KT 34/15 A30 RMK A01 T03440150  RH  031%=      5-min Rain = 0
KTA1 112343Z 16012KT 35/15 A30 RMK A01 T03450149  RH  031%=      5-min Rain = 0
KTA1 112344Z 16011KT 34/15 A30 RMK A01 T03430149  RH  031%=      5-min Rain = 0
KTA1 112345Z 16010KT 34/15 A30 RMK A01 T03420147  RH  031%=      5-min Rain = 0
KTA1 112346Z 17011KT 34/15 A30 RMK A01 T03400145  RH  031%=      5-min Rain = 0
KTA1 112347Z 17010KT 34/15 A30 RMK A01 T03400146  RH  031%=      5-min Rain = 0
KTA1 112348Z 17009KT 34/15 A30 RMK A01 T03410146  RH  031%=      5-min Rain = 0
KTA1 112349Z 16012KT 34/15 A30 RMK A01 T03430147  RH  031%=      5-min Rain = 0
KTA1 112350Z 15014KT 34/15 A30 RMK A01 T03420147  RH  031%=      5-min Rain = 0
KTA1 112351Z 16013KT 34/15 A30 RMK A01 T03390147  RH  031%=      5-min Rain = 0
KTA1 112352Z 15011KT 34/15 A30 RMK A01 T03370145  RH  032%=      5-min Rain = 0
KTA1 112353Z 16007KT 34/15 A30 RMK A01 T03370147  RH  032%=      5-min Rain = 0
KTA1 112354Z 17008KT 34/15 A30 RMK A01 T03370147  RH  032%=      5-min Rain = 0
KTA1 112355Z 17011KT 34/15 A30 RMK A01 T03380145  RH  031%=      5-min Rain = 0
KTA1 112356Z 17011KT 34/14 A30 RMK A01 T03390144  RH  031%=      5-min Rain = 0
KTA1 112357Z 17010KT 34/14 A30 RMK A01 T03390143  RH  031%=      5-min Rain = 0
KTA1 112358Z 17009KT 34/14 A30 RMK A01 T03390144  RH  031%=      5-min Rain = 0
KTA1 112359Z 17009KT 34/15 A30 RMK A01 T03390145  RH  031%=      5-min Rain = 0
KTA1 120000Z 17010KT 34/15 A30 RMK A01 T03390147  RH  031%=      5-min Rain = 0
KTA1 120001Z 15011KT 34/15 A30 RMK A01 T03400146  RH  031%=      5-min Rain = 0
KTA1 120002Z 15012KT 34/15 A30 RMK A01 T03400146  RH  031%=      5-min Rain = 0
KTA1 120003Z 16013G18KT 34/14 A30 RMK A01 T03390144  RH  031%=      5-min Rain = 0
KTA1 120004Z 17013KT 34/14 A30 RMK A01 T03380144  RH  031%=      5-min Rain = 0
KTA1 120005Z 17011KT 34/14 A30 RMK A01 T03390143  RH  031%=      5-min Rain = 0
KTA1 120006Z 16011KT 34/14 A30 RMK A01 T03390143  RH  031%=      5-min Rain = 0
KTA1 120007Z 18010KT 34/14 A30 RMK A01 T03390144  RH  031%=      5-min Rain = 0
KTA1 120008Z 19009KT 34/14 A30 RMK A01 T03410144  RH  031%=      5-min Rain = 0
KTA1 120009Z 19012KT 34/14 A30 RMK A01 T03420144  RH  030%=      5-min Rain = 0
KTA1 120010Z 19011KT 34/14 A30 RMK A01 T03410142  RH  030%=      5-min Rain = 0
KTA1 120011Z 19010KT 34/14 A30 RMK A01 T03380141  RH  031%=      5-min Rain = 0
KTA1 120012Z 18012KT 34/14 A30 RMK A01 T03370142  RH  031%=      5-min Rain = 0
KTA1 120013Z 18011KT 34/14 A30 RMK A01 T03370141  RH  031%=      5-min Rain = 0
KTA1 120014Z 17012KT 34/14 A30 RMK A01 T03370143  RH  031%=      5-min Rain = 0
KTA1 120015Z 17012KT 34/14 A30 RMK A01 T03370142  RH  031%=      5-min Rain = 0
KTA1 120016Z 18009KT 34/14 A30 RMK A01 T03370142  RH  031%=      5-min Rain = 0
KTA1 120017Z 16009KT 34/14 A30 RMK A01 T03370144  RH  031%=      5-min Rain = 0
KTA1 120018Z 15011G16KT 34/15 A30 RMK A01 T03370145  RH  032%=      5-min Rain = 0
KTA1 120019Z 16013KT 34/14 A30 RMK A01 T03370144  RH  031%=      5-min Rain = 0
KTA1 120020Z 17011KT 34/14 A30 RMK A01 T03360142  RH  031%=      5-min Rain = 0
KTA1 120021Z 18010KT 34/14 A30 RMK A01 T03360143  RH  031%=      5-min Rain = 0
KTA1 120022Z 17010KT 34/14 A30 RMK A01 T03370142  RH  031%=      5-min Rain = 0
KTA1 120023Z 17011KT 34/14 A30 RMK A01 T03370143  RH  031%=      5-min Rain = 0
KTA1 120024Z 17011KT 34/14 A30 RMK A01 T03380142  RH  031%=      5-min Rain = 0
KTA1 120025Z 17012KT 34/14 A30 RMK A01 T03380142  RH  031%=      5-min Rain = 0
KTA1 120026Z 17011KT 34/14 A30 RMK A01 T03380141  RH  031%=      5-min Rain = 0
KTA1 120027Z 17012KT 34/14 A30 RMK A01 T03380142  RH  031%=      5-min Rain = 0
KTA1 120028Z 18010KT 34/14 A30 RMK A01 T03370140  RH  030%=      5-min Rain = 0
KTA1 120029Z 18010G16KT 34/14 A3001 RMK A01 T03370141  RH  031%=      5-min Rain = 0
KTA1 120030Z 18013KT 34/14 A30 RMK A01 T03370142  RH  031%=      5-min Rain = 0
KTA1 120031Z 18012KT 34/14 A3001 RMK A01 T03360140  RH  031%=      5-min Rain = 0
KTA1 120032Z 18011KT 34/14 A3001 RMK A01 T03360141  RH  031%=      5-min Rain = 0
KTA1 120033Z 17011KT 34/14 A3001 RMK A01 T03360141  RH  031%=      5-min Rain = 0
KTA1 120034Z 18010KT 34/14 A3001 RMK A01 T03360142  RH  031%=      5-min Rain = 0
KTA1 120035Z 18011KT 34/14 A3001 RMK A01 T03360141  RH  031%=      5-min Rain = 0
KTA1 120036Z 19011KT 34/14 A3001 RMK A01 T03360141  RH  031%=      5-min Rain = 0
KTA1 120037Z 19012KT 34/14 A3001 RMK A01 T03360142  RH  031%=      5-min Rain = 0
KTA1 120038Z 19015KT 34/14 A3001 RMK A01 T03350141  RH  031%=      5-min Rain = 0
KTA1 120039Z 19014KT 33/14 A3001 RMK A01 T03340140  RH  031%=      5-min Rain = 0
KTA1 120040Z 20011KT 33/14 A3001 RMK A01 T03330139  RH  031%=      5-min Rain = 0
KTA1 120041Z 20012KT 33/14 A3001 RMK A01 T03330140  RH  031%=      5-min Rain = 0
KTA1 120042Z 19011KT 33/14 A3001 RMK A01 T03330139  RH  031%=      5-min Rain = 0
KTA1 120043Z 19010KT 33/14 A3001 RMK A01 T03330139  RH  031%=      5-min Rain = 0
KTA1 120044Z 20011KT 33/14 A3001 RMK A01 T03330139  RH  031%=      5-min Rain = 0
KTA1 120045Z 19009KT 33/14 A3001 RMK A01 T03330139  RH  031%=      5-min Rain = 0
KTA1 120046Z 20010KT 33/14 A3001 RMK A01 T03330140  RH  031%=      5-min Rain = 0
KTA1 120047Z 19010G15KT 33/14 A3001 RMK A01 T03330141  RH  031%=      5-min Rain = 0
KTA1 120048Z 19012KT 33/14 A3001 RMK A01 T03330141  RH  031%=      5-min Rain = 0
KTA1 120049Z 19009KT 33/14 A3001 RMK A01 T03330141  RH  032%=      5-min Rain = 0
KTA1 120050Z 18010KT 33/14 A3001 RMK A01 T03320141  RH  032%=      5-min Rain = 0
KTA1 120051Z 19009G14KT 33/14 A3001 RMK A01 T03320142  RH  032%=      5-min Rain = 0
KTA1 120052Z 19011KT 33/14 A3001 RMK A01 T03310142  RH  032%=      5-min Rain = 0
KTA1 120053Z 19013KT 33/14 A3001 RMK A01 T03300140  RH  032%=      5-min Rain = 0
KTA1 120054Z 18012KT 33/14 A3001 RMK A01 T03290139  RH  032%=      5-min Rain = 0
KTA1 120055Z 18009KT 33/14 A3001 RMK A01 T03280138  RH  032%=      5-min Rain = 0
KTA1 120056Z 19008KT 33/14 A3001 RMK A01 T03280138  RH  032%=      5-min Rain = 0
KTA1 120057Z 19009KT 33/14 A3001 RMK A01 T03280139  RH  032%=      5-min Rain = 0
KTA1 120058Z 19010KT 33/14 A3001 RMK A01 T03270139  RH  032%=      5-min Rain = 0
KTA1 120059Z 19011KT 33/14 A3001 RMK A01 T03270138  RH  032%=      5-min Rain = 0
KTA1 120100Z 19010KT 33/14 A3001 RMK A01 T03280138  RH  032%=      5-min Rain = 0
KTA1 120101Z 18011KT 33/14 A3001 RMK A01 T03280138  RH  032%=      5-min Rain = 0
KTA1 120102Z 18007KT 33/14 A3001 RMK A01 T03280139  RH  032%=      5-min Rain = 0
KTA1 120103Z 17008KT 33/14 A3001 RMK A01 T03280139  RH  032%=      5-min Rain = 0
KTA1 120104Z 17008KT 33/14 A3001 RMK A01 T03280140  RH  032%=      5-min Rain = 0
KTA1 120105Z 17008KT 33/14 A3001 RMK A01 T03280141  RH  032%=      5-min Rain = 0
KTA1 120106Z 17009KT 33/14 A3001 RMK A01 T03280141  RH  032%=      5-min Rain = 0
KTA1 120107Z 17007KT 33/14 A3001 RMK A01 T03270142  RH  033%=      5-min Rain = 0
KTA1 120108Z 17008KT 33/14 A3001 RMK A01 T03270143  RH  033%=      5-min Rain = 0
KTA1 120109Z 16008KT 33/14 A3001 RMK A01 T03260143  RH  033%=      5-min Rain = 0
KTA1 120110Z 17009KT 33/14 A3001 RMK A01 T03250142  RH  033%=      5-min Rain = 0
KTA1 120111Z 18011KT 32/14 A3001 RMK A01 T03240141  RH  033%=      5-min Rain = 0
KTA1 120112Z 18009KT 32/14 A3001 RMK A01 T03240141  RH  033%=      5-min Rain = 0
KTA1 120113Z 18009KT 32/14 A3001 RMK A01 T03240141  RH  033%=      5-min Rain = 0
KTA1 120114Z 18012KT 32/14 A3001 RMK A01 T03230141  RH  033%=      5-min Rain = 0
KTA1 120115Z 18011KT 32/14 A3001 RMK A01 T03230142  RH  033%=      5-min Rain = 0
KTA1 120116Z 18010KT 32/14 A3001 RMK A01 T03230142  RH  033%=      5-min Rain = 0
KTA1 120117Z 18008KT 32/14 A3001 RMK A01 T03220142  RH  034%=      5-min Rain = 0
KTA1 120118Z 18008KT 32/14 A3001 RMK A01 T03220142  RH  034%=      5-min Rain = 0
KTA1 120119Z 18010KT 32/14 A3001 RMK A01 T03220142  RH  034%=      5-min Rain = 0
KTA1 120120Z 18010KT 32/14 A3001 RMK A01 T03210142  RH  034%=      5-min Rain = 0
KTA1 120121Z 18009KT 32/14 A3001 RMK A01 T03210142  RH  034%=      5-min Rain = 0
KTA1 120122Z 19009KT 32/14 A3001 RMK A01 T03210142  RH  034%=      5-min Rain = 0
KTA1 120123Z 18007KT 32/14 A3001 RMK A01 T03200143  RH  034%=      5-min Rain = 0
KTA1 120124Z 18009KT 32/14 A3001 RMK A01 T03200143  RH  034%=      5-min Rain = 0
KTA1 120125Z 18010KT 32/14 A3001 RMK A01 T03200143  RH  034%=      5-min Rain = 0
KTA1 120126Z 18010KT 32/14 A3001 RMK A01 T03200143  RH  034%=      5-min Rain = 0
KTA1 120127Z 18008KT 32/14 A3001 RMK A01 T03200142  RH  034%=      5-min Rain = 0
KTA1 120128Z 18007KT 32/14 A3001 RMK A01 T03200143  RH  034%=      5-min Rain = 0
KTA1 120129Z 17008KT 32/14 A3001 RMK A01 T03190143  RH  034%=      5-min Rain = 0
KTA1 120130Z 17007KT 32/14 A3001 RMK A01 T03190144  RH  035%=      5-min Rain = 0
KTA1 120131Z 17007KT 32/14 A3002 RMK A01 T03180144  RH  035%=      5-min Rain = 0
KTA1 120132Z 17008KT 32/15 A3002 RMK A01 T03180145  RH  035%=      5-min Rain = 0
KTA1 120133Z 17008KT 32/15 A3002 RMK A01 T03170145  RH  035%=      5-min Rain = 0
KTA1 120134Z 17009KT 32/15 A3002 RMK A01 T03170145  RH  035%=      5-min Rain = 0
KTA1 120135Z 16008KT 32/15 A3002 RMK A01 T03160145  RH  035%=      5-min Rain = 0
KTA1 120136Z 16008KT 32/15 A3002 RMK A01 T03160145  RH  036%=      5-min Rain = 0
KTA1 120137Z 16009KT 32/14 A3002 RMK A01 T03150144  RH  035%=      5-min Rain = 0
KTA1 120138Z 16009KT 32/15 A3002 RMK A01 T03150145  RH  036%=      5-min Rain = 0
KTA1 120139Z 16010KT 32/15 A3002 RMK A01 T03150145  RH  036%=      5-min Rain = 0
KTA1 120140Z 16008KT 31/14 A3002 RMK A01 T03140144  RH  036%=      5-min Rain = 0
KTA1 120141Z 16007KT 31/14 A3002 RMK A01 T03140144  RH  036%=      5-min Rain = 0
KTA1 120142Z 16008KT 31/14 A3002 RMK A01 T03130144  RH  036%=      5-min Rain = 0
KTA1 120143Z 16009KT 31/14 A3002 RMK A01 T03130144  RH  036%=      5-min Rain = 0
KTA1 120144Z 16009KT 31/14 A3002 RMK A01 T03120144  RH  036%=      5-min Rain = 0
KTA1 120145Z 16009KT 31/14 A3002 RMK A01 T03120144  RH  036%=      5-min Rain = 0
KTA1 120146Z 16009KT 31/14 A3002 RMK A01 T03120144  RH  036%=      5-min Rain = 0
KTA1 120147Z 15010KT 31/14 A3002 RMK A01 T03110143  RH  036%=      5-min Rain = 0
KTA1 120148Z 16009KT 31/14 A3002 RMK A01 T03110144  RH  036%=      5-min Rain = 0
KTA1 120149Z 15010KT 31/14 A3002 RMK A01 T03110144  RH  036%=      5-min Rain = 0
KTA1 120150Z 16010KT 31/14 A3002 RMK A01 T03110144  RH  036%=      5-min Rain = 0
KTA1 120151Z 15009KT 31/14 A3002 RMK A01 T03100144  RH  036%=      5-min Rain = 0
KTA1 120152Z 15009KT 31/14 A3002 RMK A01 T03100144  RH  036%=      5-min Rain = 0
KTA1 120153Z 15009KT 31/14 A3002 RMK A01 T03100144  RH  036%=      5-min Rain = 0
KTA1 120154Z 15009KT 31/14 A3002 RMK A01 T03100144  RH  037%=      5-min Rain = 0
KTA1 120155Z 15009KT 31/14 A3002 RMK A01 T03090144  RH  037%=      5-min Rain = 0
KTA1 120156Z 16009KT 31/14 A3003 RMK A01 T03090144  RH  037%=      5-min Rain = 0
KTA1 120157Z 15009KT 31/14 A3003 RMK A01 T03090144  RH  037%=      5-min Rain = 0
KTA1 120158Z 15011KT 31/14 A3003 RMK A01 T03080143  RH  036%=      5-min Rain = 0
KTA1 120159Z 15010KT 31/14 A3003 RMK A01 T03080142  RH  036%=      5-min Rain = 0
KTA1 120200Z 16010KT 31/14 A3003 RMK A01 T03090142  RH  036%=      5-min Rain = 0
KTA1 120201Z 16010KT 31/14 A3003 RMK A01 T03090142  RH  036%=      5-min Rain = 0
KTA1 120202Z 15009KT 31/14 A3003 RMK A01 T03090143  RH  036%=      5-min Rain = 0
KTA1 120203Z 15009KT 31/14 A3003 RMK A01 T03090143  RH  036%=      5-min Rain = 0
KTA1 120204Z 15009KT 31/14 A3003 RMK A01 T03080143  RH  037%=      5-min Rain = 0
KTA1 120205Z 15009KT 31/14 A3003 RMK A01 T03080143  RH  037%=      5-min Rain = 0
KTA1 120206Z 15009KT 31/14 A3003 RMK A01 T03070143  RH  037%=      5-min Rain = 0
KTA1 120207Z 15009KT 31/14 A3003 RMK A01 T03070143  RH  037%=      5-min Rain = 0
KTA1 120208Z 15009KT 31/14 A3003 RMK A01 T03060143  RH  037%=      5-min Rain = 0
KTA1 120209Z 15009KT 31/14 A3003 RMK A01 T03060143  RH  037%=      5-min Rain = 0
KTA1 120210Z 15008KT 31/14 A3003 RMK A01 T03050143  RH  037%=      5-min Rain = 0
KTA1 120211Z 15008KT 31/14 A3003 RMK A01 T03050144  RH  038%=      5-min Rain = 0
KTA1 120212Z 15008KT 30/14 A3003 RMK A01 T03040144  RH  038%=      5-min Rain = 0
KTA1 120213Z 15008KT 30/14 A3003 RMK A01 T03040144  RH  038%=      5-min Rain = 0
KTA1 120214Z 16008KT 30/14 A3003 RMK A01 T03030143  RH  038%=      5-min Rain = 0
KTA1 120215Z 15008KT 30/14 A3003 RMK A01 T03030144  RH  038%=      5-min Rain = 0
KTA1 120216Z 16007KT 30/14 A3003 RMK A01 T03020144  RH  038%=      5-min Rain = 0
KTA1 120217Z 16008KT 30/14 A3003 RMK A01 T03010144  RH  038%=      5-min Rain = 0
KTA1 120218Z 16008KT 30/14 A3003 RMK A01 T03010144  RH  038%=      5-min Rain = 0
KTA1 120219Z 16007KT 30/14 A3003 RMK A01 T03010144  RH  038%=      5-min Rain = 0
KTA1 120220Z 16008KT 30/14 A3003 RMK A01 T03000144  RH  038%=      5-min Rain = 0
KTA1 120221Z 16008KT 30/14 A3003 RMK A01 T03000143  RH  038%=      5-min Rain = 0
KTA1 120222Z 16008KT 30/14 A3003 RMK A01 T03000143  RH  038%=      5-min Rain = 0
KTA1 120223Z 16008KT 30/14 A3003 RMK A01 T03000143  RH  038%=      5-min Rain = 0
KTA1 120224Z 16007KT 30/14 A3004 RMK A01 T02990143  RH  039%=      5-min Rain = 0
KTA1 120225Z 16008KT 30/14 A3004 RMK A01 T02990143  RH  039%=      5-min Rain = 0
KTA1 120226Z 15008KT 30/14 A3004 RMK A01 T02980143  RH  039%=      5-min Rain = 0
KTA1 120227Z 15008KT 30/14 A3004 RMK A01 T02980143  RH  039%=      5-min Rain = 0
KTA1 120228Z 15007KT 30/14 A3004 RMK A01 T02980143  RH  039%=      5-min Rain = 0
KTA1 120229Z 15008KT 30/14 A3004 RMK A01 T02980143  RH  039%=      5-min Rain = 0
KTA1 120230Z 15007KT 30/14 A3004 RMK A01 T02980143  RH  039%=      5-min Rain = 0
KTA1 120231Z 16007KT 30/14 A3004 RMK A01 T02970143  RH  039%=      5-min Rain = 0
KTA1 120232Z 16007KT 30/14 A3004 RMK A01 T02970143  RH  039%=      5-min Rain = 0
KTA1 120233Z 15008KT 30/14 A3004 RMK A01 T02970143  RH  039%=      5-min Rain = 0
KTA1 120234Z 15008KT 30/14 A3004 RMK A01 T02970144  RH  039%=      5-min Rain = 0
KTA1 120235Z 15007KT 30/14 A3004 RMK A01 T02960143  RH  039%=      5-min Rain = 0
KTA1 120236Z 15007KT 30/14 A3004 RMK A01 T02950144  RH  040%=      5-min Rain = 0
KTA1 120237Z 15007KT 30/14 A3004 RMK A01 T02950144  RH  040%=      5-min Rain = 0
KTA1 120238Z 15007KT 30/14 A3004 RMK A01 T02950144  RH  040%=      5-min Rain = 0
KTA1 120239Z 15007KT 29/14 A3004 RMK A01 T02940144  RH  040%=      5-min Rain = 0
KTA1 120240Z 15007KT 29/14 A3004 RMK A01 T02940144  RH  040%=      5-min Rain = 0
KTA1 120241Z 15007KT 29/14 A3004 RMK A01 T02940144  RH  040%=      5-min Rain = 0
KTA1 120242Z 15008KT 29/14 A3004 RMK A01 T02940143  RH  040%=      5-min Rain = 0
KTA1 120243Z 15008KT 29/14 A3004 RMK A01 T02940143  RH  040%=      5-min Rain = 0
KTA1 120244Z 15008KT 29/14 A3004 RMK A01 T02940143  RH  040%=      5-min Rain = 0
KTA1 120245Z 15007KT 29/14 A3004 RMK A01 T02940143  RH  040%=      5-min Rain = 0
KTA1 120246Z 15008KT 29/14 A3004 RMK A01 T02940143  RH  040%=      5-min Rain = 0
KTA1 120247Z 15008KT 29/14 A3004 RMK A01 T02930144  RH  040%=      5-min Rain = 0
KTA1 120248Z 15007KT 29/14 A3004 RMK A01 T02930143  RH  040%=      5-min Rain = 0
KTA1 120249Z 15007KT 29/14 A3004 RMK A01 T02930144  RH  040%=      5-min Rain = 0
KTA1 120250Z 15007KT 29/14 A3004 RMK A01 T02930144  RH  040%=      5-min Rain = 0
KTA1 120251Z 15007KT 29/14 A3004 RMK A01 T02920143  RH  040%=      5-min Rain = 0
KTA1 120252Z 16006KT 29/14 A3004 RMK A01 T02920143  RH  040%=      5-min Rain = 0
KTA1 120253Z 15007KT 29/14 A3005 RMK A01 T02920143  RH  040%=      5-min Rain = 0
KTA1 120254Z 15006KT 29/14 A3005 RMK A01 T02920143  RH  040%=      5-min Rain = 0
KTA1 120255Z 15006KT 29/14 A3005 RMK A01 T02910143  RH  040%=      5-min Rain = 0
KTA1 120256Z 15006KT 29/14 A3005 RMK A01 T02910143  RH  040%=      5-min Rain = 0
KTA1 120257Z 15006KT 29/14 A3005 RMK A01 T02910143  RH  041%=      5-min Rain = 0
KTA1 120258Z 15006KT 29/14 A3005 RMK A01 T02900143  RH  041%=      5-min Rain = 0
KTA1 120259Z 15006KT 29/14 A3005 RMK A01 T02900144  RH  041%=      5-min Rain = 0
KTA1 120300Z 15006KT 29/14 A3005 RMK A01 T02890143  RH  041%=      5-min Rain = 0
KTA1 120301Z 15006KT 29/14 A3005 RMK A01 T02890144  RH  041%=      5-min Rain = 0
KTA1 120302Z 15006KT 29/14 A3005 RMK A01 T02880143  RH  041%=      5-min Rain = 0
KTA1 120303Z 15006KT 29/14 A3005 RMK A01 T02880143  RH  041%=      5-min Rain = 0
KTA1 120304Z 15007KT 29/14 A3005 RMK A01 T02870142  RH  041%=      5-min Rain = 0
KTA1 120305Z 15006KT 29/14 A3005 RMK A01 T02870142  RH  041%=      5-min Rain = 0
KTA1 120306Z 15006KT 29/14 A3005 RMK A01 T02870142  RH  041%=      5-min Rain = 0
KTA1 120307Z 15006KT 29/14 A3005 RMK A01 T02870142  RH  041%=      5-min Rain = 0
KTA1 120308Z 15006KT 29/14 A3006 RMK A01 T02870143  RH  041%=      5-min Rain = 0
KTA1 120309Z 15006KT 29/14 A3006 RMK A01 T02870143  RH  041%=      5-min Rain = 0
KTA1 120310Z 15006KT 29/14 A3006 RMK A01 T02860143  RH  041%=      5-min Rain = 0
KTA1 120311Z 15006KT 29/14 A3006 RMK A01 T02860142  RH  041%=      5-min Rain = 0
KTA1 120312Z 15007KT 29/14 A3006 RMK A01 T02860142  RH  041%=      5-min Rain = 0
KTA1 120313Z 15006KT 29/14 A3006 RMK A01 T02860142  RH  041%=      5-min Rain = 0
KTA1 120314Z 15007KT 29/14 A3006 RMK A01 T02850142  RH  041%=      5-min Rain = 0
KTA1 120315Z 15007KT 29/14 A3006 RMK A01 T02860142  RH  041%=      5-min Rain = 0
KTA1 120316Z 15007KT 29/14 A3006 RMK A01 T02860142  RH  041%=      5-min Rain = 0
KTA1 120317Z 15007KT 29/14 A3006 RMK A01 T02860142  RH  041%=      5-min Rain = 0
KTA1 120318Z 15007KT 29/14 A3006 RMK A01 T02850141  RH  041%=      5-min Rain = 0
KTA1 120319Z 15007KT 29/14 A3006 RMK A01 T02850141  RH  041%=      5-min Rain = 0
KTA1 120320Z 15008KT 29/14 A3006 RMK A01 T02850141  RH  041%=      5-min Rain = 0
KTA1 120321Z 15008KT 29/14 A3006 RMK A01 T02850141  RH  041%=      5-min Rain = 0
KTA1 120322Z 15008KT 29/14 A3006 RMK A01 T02850140  RH  041%=      5-min Rain = 0
KTA1 120323Z 16007KT 29/14 A3006 RMK A01 T02850140  RH  041%=      5-min Rain = 0
KTA1 120324Z 15007KT 29/14 A3006 RMK A01 T02850141  RH  041%=      5-min Rain = 0
KTA1 120325Z 16007KT 29/14 A3006 RMK A01 T02850141  RH  041%=      5-min Rain = 0
KTA1 120326Z 16008KT 29/14 A3006 RMK A01 T02850141  RH  041%=      5-min Rain = 0
KTA1 120327Z 16007KT 28/14 A3006 RMK A01 T02840140  RH  041%=      5-min Rain = 0
KTA1 120328Z 16008KT 28/14 A3006 RMK A01 T02840140  RH  041%=      5-min Rain = 0
KTA1 120329Z 16008KT 28/14 A3006 RMK A01 T02840141  RH  041%=      5-min Rain = 0
KTA1 120330Z 16007KT 28/14 A3006 RMK A01 T02840141  RH  042%=      5-min Rain = 0
KTA1 120331Z 16007KT 28/14 A3006 RMK A01 T02830140  RH  041%=      5-min Rain = 0
KTA1 120332Z 16008KT 28/14 A3006 RMK A01 T02830140  RH  041%=      5-min Rain = 0
KTA1 120333Z 16007KT 28/14 A3006 RMK A01 T02830140  RH  041%=      5-min Rain = 0
KTA1 120334Z 16007KT 28/14 A3006 RMK A01 T02830140  RH  042%=      5-min Rain = 0
KTA1 120335Z 16007KT 28/14 A3006 RMK A01 T02830140  RH  042%=      5-min Rain = 0
KTA1 120336Z 16007KT 28/14 A3007 RMK A01 T02820140  RH  042%=      5-min Rain = 0
KTA1 120337Z 16008KT 28/14 A3007 RMK A01 T02820140  RH  042%=      5-min Rain = 0
KTA1 120338Z 16008KT 28/14 A3007 RMK A01 T02820140  RH  042%=      5-min Rain = 0
KTA1 120339Z 16007KT 28/14 A3007 RMK A01 T02820140  RH  042%=      5-min Rain = 0
KTA1 120340Z 16008KT 28/14 A3007 RMK A01 T02820140  RH  042%=      5-min Rain = 0
KTA1 120341Z 16008KT 28/14 A3007 RMK A01 T02810139  RH  042%=      5-min Rain = 0
KTA1 120342Z 16007KT 28/14 A3007 RMK A01 T02810140  RH  042%=      5-min Rain = 0
KTA1 120343Z 16007KT 28/14 A3007 RMK A01 T02810140  RH  042%=      5-min Rain = 0
KTA1 120344Z 16007KT 28/14 A3007 RMK A01 T02810140  RH  042%=      5-min Rain = 0
KTA1 120345Z 16008KT 28/14 A3007 RMK A01 T02800140  RH  042%=      5-min Rain = 0
KTA1 120346Z 16008KT 28/14 A3007 RMK A01 T02800140  RH  042%=      5-min Rain = 0
KTA1 120347Z 15008KT 28/14 A3007 RMK A01 T02800140  RH  042%=      5-min Rain = 0
KTA1 120348Z 15008KT 28/14 A3007 RMK A01 T02790140  RH  042%=      5-min Rain = 0
KTA1 120349Z 16008KT 28/14 A3007 RMK A01 T02790140  RH  042%=      5-min Rain = 0
KTA1 120350Z 16007KT 28/14 A3007 RMK A01 T02790140  RH  042%=      5-min Rain = 0
KTA1 120351Z 16007KT 28/14 A3007 RMK A01 T02790140  RH  042%=      5-min Rain = 0
KTA1 120352Z 16007KT 28/14 A3007 RMK A01 T02790140  RH  042%=      5-min Rain = 0
KTA1 120353Z 16007KT 28/14 A3007 RMK A01 T02790139  RH  042%=      5-min Rain = 0
KTA1 120354Z 16007KT 28/14 A3007 RMK A01 T02790139  RH  042%=      5-min Rain = 0
KTA1 120355Z 16007KT 28/14 A3007 RMK A01 T02790140  RH  042%=      5-min Rain = 0
KTA1 120356Z 16007KT 28/14 A3007 RMK A01 T02790140  RH  043%=      5-min Rain = 0
KTA1 120357Z 16007KT 28/14 A3007 RMK A01 T02780140  RH  043%=      5-min Rain = 0
KTA1 120358Z 16007KT 28/14 A3007 RMK A01 T02780140  RH  043%=      5-min Rain = 0
KTA1 120359Z 16007KT 28/14 A3007 RMK A01 T02770140  RH  043%=      5-min Rain = 0
KTA1 120400Z 16008KT 28/14 A3007 RMK A01 T02770139  RH  043%=      5-min Rain = 0
KTA1 120401Z 16008KT 28/14 A3007 RMK A01 T02770140  RH  043%=      5-min Rain = 0
KTA1 120402Z 16008KT 28/14 A3007 RMK A01 T02770140  RH  043%=      5-min Rain = 0
KTA1 120403Z 16008KT 28/14 A3007 RMK A01 T02770140  RH  043%=      5-min Rain = 0
KTA1 120404Z 16008KT 28/14 A3007 RMK A01 T02780140  RH  043%=      5-min Rain = 0
KTA1 120405Z 16008KT 28/14 A3007 RMK A01 T02770139  RH  043%=      5-min Rain = 0
KTA1 120406Z 16007KT 28/14 A3008 RMK A01 T02770139  RH  043%=      5-min Rain = 0
KTA1 120407Z 16007KT 28/14 A3008 RMK A01 T02770139  RH  043%=      5-min Rain = 0
KTA1 120408Z 16008KT 28/14 A3008 RMK A01 T02780139  RH  043%=      5-min Rain = 0
KTA1 120409Z 16007KT 28/14 A3008 RMK A01 T02780139  RH  043%=      5-min Rain = 0
KTA1 120410Z 16007KT 28/14 A3008 RMK A01 T02780140  RH  043%=      5-min Rain = 0
KTA1 120411Z 16007KT 28/14 A3008 RMK A01 T02780140  RH  043%=      5-min Rain = 0
KTA1 120412Z 16007KT 28/14 A3008 RMK A01 T02780140  RH  043%=      5-min Rain = 0
KTA1 120413Z 16007KT 28/14 A3008 RMK A01 T02780139  RH  043%=      5-min Rain = 0
KTA1 120414Z 16007KT 28/14 A3008 RMK A01 T02780139  RH  043%=      5-min Rain = 0
KTA1 120415Z 16007KT 28/14 A3008 RMK A01 T02780139  RH  042%=      5-min Rain = 0
KTA1 120416Z 16007KT 28/14 A3008 RMK A01 T02780139  RH  043%=      5-min Rain = 0
KTA1 120417Z 16007KT 28/14 A3008 RMK A01 T02780140  RH  043%=      5-min Rain = 0
KTA1 120418Z 16006KT 28/14 A3008 RMK A01 T02780140  RH  043%=      5-min Rain = 0
KTA1 120419Z 16006KT 28/14 A3008 RMK A01 T02780140  RH  043%=      5-min Rain = 0
KTA1 120420Z 16006KT 28/14 A3008 RMK A01 T02780139  RH  043%=      5-min Rain = 0
KTA1 120421Z 16006KT 28/14 A3008 RMK A01 T02780140  RH  043%=      5-min Rain = 0
KTA1 120422Z 16007KT 28/14 A3008 RMK A01 T02770140  RH  043%=      5-min Rain = 0
KTA1 120423Z 16006KT 28/14 A3008 RMK A01 T02770140  RH  043%=      5-min Rain = 0
KTA1 120424Z 17007KT 28/14 A3008 RMK A01 T02760140  RH  043%=      5-min Rain = 0
KTA1 120425Z 17007KT 28/14 A3008 RMK A01 T02760140  RH  043%=      5-min Rain = 0
KTA1 120426Z 16006KT 28/14 A3008 RMK A01 T02760139  RH  043%=      5-min Rain = 0
KTA1 120427Z 16006KT 28/14 A3008 RMK A01 T02760140  RH  043%=      5-min Rain = 0
KTA1 120428Z 16007KT 28/14 A3008 RMK A01 T02770140  RH  043%=      5-min Rain = 0
KTA1 120429Z 16006KT 28/14 A3008 RMK A01 T02760140  RH  043%=      5-min Rain = 0
KTA1 120430Z 16007KT 28/14 A3008 RMK A01 T02760140  RH  043%=      5-min Rain = 0
KTA1 120431Z 16006KT 28/14 A3008 RMK A01 T02750140  RH  043%=      5-min Rain = 0
KTA1 120432Z 16007KT 28/14 A3008 RMK A01 T02750140  RH  043%=      5-min Rain = 0
KTA1 120433Z 16007KT 28/14 A3008 RMK A01 T02750139  RH  043%=      5-min Rain = 0
KTA1 120434Z 16006KT 28/14 A3008 RMK A01 T02750139  RH  043%=      5-min Rain = 0
KTA1 120435Z 16007KT 28/14 A3008 RMK A01 T02750139  RH  043%=      5-min Rain = 0
KTA1 120436Z 16007KT 28/14 A3008 RMK A01 T02750139  RH  043%=      5-min Rain = 0
KTA1 120437Z 16007KT 28/14 A3008 RMK A01 T02750139  RH  043%=      5-min Rain = 0
KTA1 120438Z 17007KT 28/14 A3008 RMK A01 T02760139  RH  043%=      5-min Rain = 0
KTA1 120439Z 17007KT 28/14 A3008 RMK A01 T02760139  RH  043%=      5-min Rain = 0
KTA1 120440Z 17007KT 28/14 A3008 RMK A01 T02760140  RH  043%=      5-min Rain = 0
KTA1 120441Z 17007KT 28/14 A3008 RMK A01 T02750139  RH  043%=      5-min Rain = 0
KTA1 120442Z 17007KT 28/14 A3008 RMK A01 T02750139  RH  043%=      5-min Rain = 0
KTA1 120443Z 17006KT 28/14 A3008 RMK A01 T02750139  RH  043%=      5-min Rain = 0
KTA1 120444Z 17007KT 28/14 A3008 RMK A01 T02760139  RH  043%=      5-min Rain = 0
KTA1 120445Z 17007KT 28/14 A3008 RMK A01 T02760139  RH  043%=      5-min Rain = 0
KTA1 120446Z 17007KT 28/14 A3008 RMK A01 T02750139  RH  043%=      5-min Rain = 0
KTA1 120447Z 17007KT 28/14 A3009 RMK A01 T02760139  RH  043%=      5-min Rain = 0
KTA1 120448Z 17007KT 28/14 A3009 RMK A01 T02760139  RH  043%=      5-min Rain = 0
KTA1 120449Z 17006KT 28/14 A3009 RMK A01 T02760139  RH  043%=      5-min Rain = 0
KTA1 120450Z 17006KT 28/14 A3009 RMK A01 T02760139  RH  043%=      5-min Rain = 0
KTA1 120451Z 17006KT 28/14 A3009 RMK A01 T02760139  RH  043%=      5-min Rain = 0
KTA1 120452Z 17006KT 28/14 A3009 RMK A01 T02750139  RH  043%=      5-min Rain = 0
KTA1 120453Z 17006KT 28/14 A3009 RMK A01 T02750139  RH  043%=      5-min Rain = 0
KTA1 120454Z 17006KT 28/14 A3009 RMK A01 T02750140  RH  044%=      5-min Rain = 0
KTA1 120455Z 17005KT 27/14 A3009 RMK A01 T02740139  RH  044%=      5-min Rain = 0
KTA1 120456Z 17006KT 27/14 A3009 RMK A01 T02740140  RH  044%=      5-min Rain = 0
KTA1 120457Z 17006KT 27/14 A3009 RMK A01 T02740140  RH  044%=      5-min Rain = 0
KTA1 120458Z 17006KT 27/14 A3009 RMK A01 T02740140  RH  044%=      5-min Rain = 0
KTA1 120459Z 17006KT 27/14 A3009 RMK A01 T02740140  RH  044%=      5-min Rain = 0
KTA1 120500Z 17006KT 27/14 A3009 RMK A01 T02730139  RH  044%=      5-min Rain = 0

Page generated in 0.0492 seconds.